CW1648 Weather Reports


time (UTC)temp
C
wind
direction
speed
KPH
gust
KPH
rain 1hr
cm
rain 24hr
cm
rain mn
cm
humidity
%
barometer
mb
20260906194945 26 240 0.0 0.0 0.00 0.00 0.00 54 1012.5
20260906194843 25 248 0.0 0.0 0.00 0.00 0.00 56 1012.5
20260906194804 25 248 0.0 0.0 0.00 0.00 0.00 56 1012.5
20260906194800 25 248 0.0 0.0 0.00 0.00 0.00 56 1012.5
20260906194753 25 249 0.0 0.0 0.00 0.00 0.00 56 1012.5
20260906194544 25 248 0.0 0.0 0.00 0.00 0.00 57 1012.5
20260906194528 25 248 0.0 0.0 0.00 0.00 0.00 58 1012.3
20260906194442 25 249 0.0 0.0 0.00 0.00 0.00 58 1012.4
20260906194343 25 247 0.0 0.0 0.00 0.00 0.00 57 1012.3
20260906194254 25 252 0.0 0.0 0.00 0.00 0.00 58 1012.3
20260906194240 25 249 0.0 0.0 0.00 0.00 0.00 58 1012.3
20260906194140 25 247 0.0 0.0 0.00 0.00 0.00 62 1012.4
20260906194040 25 310 0.0 0.0 0.00 0.00 0.00 62 1012.4
20260906194028 25 310 0.0 0.0 0.00 0.00 0.00 62 1012.3
20260906193939 25 310 0.0 0.0 0.00 0.00 0.00 61 1012.4
20260906193839 25 310 0.0 0.0 0.00 0.00 0.00 62 1012.4
20260906193753 24 314 0.0 0.0 0.00 0.00 0.00 62 1012.5
20260906193739 24 290 0.0 0.0 0.00 0.00 0.00 62 1012.5
20260906193638 24 320 0.0 0.0 0.00 0.00 0.00 63 1012.4
20260906193538 24 315 0.0 0.0 0.00 0.00 0.00 63 1012.4
20260906193529 24 315 0.0 0.0 0.00 0.00 0.00 63 1012.3
20260906193437 24 315 0.0 0.0 0.00 0.00 0.00 63 1012.4
20260906193418 24 315 0.0 0.0 0.00 0.00 0.00 63 1012.4
20260906193306 24 319 0.0 0.0 0.00 0.00 0.00 62 1012.4
20260906193302 24 319 0.0 0.0 0.00 0.00 0.00 62 1012.4
20260906193255 24 322 0.0 0.0 0.00 0.00 0.00 62 1012.4
20260906193028 24 319 0.0 0.0 0.00 0.00 0.00 62 1012.3
20260906192936 24 319 0.0 0.0 0.00 0.00 0.00 62 1012.4
20260906192836 24 319 0.0 0.0 0.00 0.00 0.00 62 1012.4
20260906192735 24 319 0.0 0.0 0.00 0.00 0.00 61 1012.4
20260906192649 24 319 0.0 0.0 0.00 0.00 0.00 62 1012.4
20260906192644 24 319 0.0 0.0 0.00 0.00 0.00 61 1012.4
20260906192543 24 85 0.0 0.0 0.00 0.00 0.00 61 1012.3
20260906192448 24 86 0.0 0.0 0.00 0.00 0.00 60 1012.4
20260906192443 24 85 0.0 0.0 0.00 0.00 0.00 61 1012.4
20260906192233 24 85 0.0 0.0 0.00 0.00 0.00 62 1012.3
20260906192131 24 85 0.0 0.0 0.00 0.00 0.00 61 1012.3
20260906192030 24 85 0.0 0.0 0.00 0.00 0.00 60 1012.3
20260906192028 24 85 0.0 0.0 0.00 0.00 0.00 59 1012.2
20260906191930 24 85 0.0 0.0 0.00 0.00 0.00 60 1012.3
20260906191830 24 85 0.0 0.0 0.00 0.00 0.00 61 1012.3
20260906191751 24 85 0.0 0.0 0.00 0.00 0.00 61 1012.3
20260906191729 24 85 0.0 0.0 0.00 0.00 0.00 60 1012.3
20260906191629 24 85 0.0 0.0 0.00 0.00 0.00 59 1012.3
20260906191529 24 85 0.0 0.0 0.00 0.00 0.00 59 1012.3
20260906191427 24 85 0.0 0.0 0.00 0.00 0.00 59 1012.3
20260906191327 24 85 0.0 0.0 0.00 0.00 0.00 59 1012.3
20260906191228 24 85 0.0 0.0 0.00 0.00 0.00 59 1012.3
20260906191125 25 85 0.0 0.0 0.00 0.00 0.00 58 1012.3
20260906191029 25 85 0.0 0.0 0.00 0.00 0.00 58 1012.2
20260906191025 25 85 0.0 0.0 0.00 0.00 0.00 58 1012.3
20260906190938 25 85 0.0 0.0 0.00 0.00 0.00 57 1012.3
20260906190933 25 85 0.0 0.0 0.00 0.00 0.00 58 1012.3
20260906190749 25 85 0.0 0.0 0.00 0.00 0.00 57 1012.3
20260906190723 25 84 0.0 0.0 0.00 0.00 0.00 58 1012.3
20260906190637 25 86 0.0 0.0 0.00 0.00 0.00 58 1012.4
20260906190632 25 88 0.0 0.0 0.00 0.00 0.00 57 1012.4
20260906190528 25 78 0.0 0.0 0.00 0.00 0.00 58 1012.2
20260906190423 25 88 0.0 0.0 0.00 0.00 0.00 57 1012.3
20260906190322 25 94 0.0 0.0 0.00 0.00 0.00 57 1012.3
20260906190248 25 87 0.0 0.0 0.00 0.00 0.00 56 1012.3
20260906190222 25 61 0.0 0.0 0.00 0.00 0.00 57 1012.3
20260906190121 25 102 0.0 0.0 0.00 0.00 0.00 58 1012.4
20260906190028 25 51 0.0 0.0 0.00 0.00 0.00 58 1012.2
20260906190021 25 51 0.0 0.0 0.00 0.00 0.00 58 1012.4
20260906185921 25 48 0.0 0.0 0.00 0.00 0.00 57 1012.4
20260906185819 25 52 0.0 0.0 0.00 0.00 0.00 57 1012.3
20260906185808 25 52 0.0 0.0 0.00 0.00 0.00 57 1012.4
20260906185801 25 51 0.0 0.0 0.00 0.00 0.00 59 1012.4
20260906185648 25 51 0.0 0.0 0.00 0.00 0.00 59 1012.4
20260906185535 25 51 0.0 0.0 0.00 0.00 0.00 59 1012.4
20260906185528 25 50 0.0 0.0 0.00 0.00 0.00 59 1012.2
20260906185246 25 42 0.0 0.0 0.00 0.00 0.00 59 1012.4
20260906185216 25 42 0.0 0.0 0.00 0.00 0.00 59 1012.4
20260906185116 25 53 0.0 0.0 0.00 0.00 0.00 59 1012.4
20260906185029 25 51 0.0 0.0 0.00 0.00 0.00 58 1012.2
20260906185015 25 51 0.0 0.0 0.00 0.00 0.00 58 1012.4
20260906184915 25 52 0.0 0.0 0.00 0.00 0.00 58 1012.4
20260906184834 25 51 0.0 0.0 0.00 0.00 0.00 56 1012.3
20260906184829 25 52 0.0 0.0 0.00 0.00 0.00 57 1012.4
20260906184822 25 53 0.0 0.0 0.00 0.00 0.00 56 1012.3
20260906184636 25 48 0.0 0.0 0.00 0.00 0.00 58 1012.3
20260906184528 26 67 0.0 0.0 0.00 0.00 0.00 57 1012.2
20260906184523 26 70 0.0 0.0 0.00 0.00 0.00 57 1012.4
20260906184359 25 65 0.0 0.0 0.00 0.00 0.00 57 1012.3
20260906184354 25 86 0.0 0.0 0.00 0.00 0.00 58 1012.3
20260906184350 25 283 0.0 0.0 0.00 0.00 0.00 59 1012.3
20260906184344 25 92 0.0 0.0 0.00 0.00 0.00 59 1012.3
20260906184337 25 65 0.0 0.0 0.00 0.00 0.00 57 1012.3
20260906184028 25 283 0.0 0.0 0.00 0.00 0.00 59 1012.1
20260906183924 25 283 0.0 0.0 0.00 0.00 0.00 58 1012.3
20260906183919 25 283 0.0 0.0 0.00 0.00 0.00 58 1012.3
20260906183743 25 283 0.0 0.0 0.00 0.00 0.00 58 1012.3
20260906183709 25 284 0.0 0.0 0.00 0.00 0.00 57 1012.3
20260906183610 25 230 0.0 0.0 0.00 0.00 0.00 56 1012.3
20260906183536 25 239 0.0 0.0 0.00 0.00 0.00 57 1012.2
20260906183532 25 240 0.0 0.0 0.00 0.00 0.00 54 1012.2
20260906183528 25 229 0.0 0.0 0.00 0.00 0.00 55 1012.0
20260906183244 25 240 0.0 0.0 0.00 0.00 0.00 54 1012.2
20260906183207 25 240 0.0 0.0 0.00 0.00 0.00 54 1012.2
20260906183121 25 202 0.0 0.0 0.00 0.00 0.00 53 1012.2
20260906183115 25 199 0.0 0.0 0.00 0.00 0.00 53 1012.2
20260906183058 25 203 0.0 0.0 0.00 0.00 0.00 53 1012.2
20260906182919 25 330 0.0 0.0 0.00 0.00 0.00 54 1012.3
20260906182914 25 341 0.0 0.0 0.00 0.00 0.00 55 1012.3
20260906182742 25 339 0.0 0.0 0.00 0.00 0.00 54 1012.3
20260906182704 25 342 0.0 0.0 0.00 0.00 0.00 54 1012.3
20260906182604 25 294 0.0 0.0 0.00 0.00 0.00 57 1012.3
20260906182528 25 294 0.0 0.0 0.00 0.00 0.00 60 1012.2
20260906182502 25 294 0.0 0.0 0.00 0.00 0.00 60 1012.3
20260906182402 25 296 0.0 0.0 0.00 0.00 0.00 59 1012.3
20260906182322 25 298 0.0 0.0 0.00 0.00 0.00 59 1012.4
20260906182317 25 298 0.0 0.0 0.00 0.00 0.00 58 1012.4
20260906182310 25 297 0.0 0.0 0.00 0.00 0.00 58 1012.4
20260906182102 25 303 0.0 0.0 0.00 0.00 0.00 59 1012.5
20260906182028 25 303 0.0 0.0 0.00 0.00 0.00 60 1012.4
20260906182001 25 303 0.0 0.0 0.00 0.00 0.00 60 1012.5
20260906181901 25 303 0.0 0.0 0.00 0.00 0.00 60 1012.5
20260906181740 25 303 0.0 0.0 0.00 0.00 0.00 59 1012.6
20260906181700 25 303 0.0 0.0 0.00 0.00 0.00 59 1012.6
20260906181600 25 303 0.0 0.0 0.00 0.00 0.00 58 1012.6
20260906181528 25 303 0.0 0.0 0.00 0.00 0.00 58 1012.5
20260906181511 25 314 0.0 0.0 0.00 0.00 0.00 61 1012.7
20260906181500 25 303 0.0 0.0 0.00 0.00 0.00 58 1012.6
20260906181359 25 313 0.0 0.0 0.00 0.00 0.00 59 1012.7
20260906181347 25 314 0.0 0.0 0.00 0.00 0.00 59 1012.7
20260906181159 25 316 0.0 0.0 0.00 0.00 0.00 59 1012.7
20260906181059 25 316 0.0 0.0 0.00 0.00 0.00 61 1012.7
20260906180957 25 58 0.0 0.0 0.00 0.00 0.00 62 1012.6
20260906180857 25 59 0.0 0.0 0.00 0.00 0.00 64 1012.7
20260906180757 24 59 0.0 0.0 0.00 0.00 0.00 63 1012.6
20260906180739 24 59 0.0 0.0 0.00 0.00 0.00 61 1012.6
20260906180654 24 59 0.0 0.0 0.00 0.00 0.00 60 1012.7
20260906180628 24 265 0.0 0.0 0.00 0.00 0.00 63 1012.6
20260906180553 24 59 0.0 0.0 0.00 0.00 0.00 63 1012.7
20260906180452 24 265 0.0 0.0 0.00 0.00 0.00 63 1012.7
20260906180350 24 264 0.0 0.0 0.00 0.00 0.00 63 1012.8
20260906180239 24 265 0.0 0.0 0.00 0.00 0.00 62 1012.7
20260906180214 24 264 0.0 0.0 0.00 0.00 0.00 60 1012.7
20260906180209 24 264 0.0 0.0 0.00 0.00 0.00 61 1012.6
20260906180205 24 264 0.0 0.0 0.00 0.00 0.00 61 1012.7
20260906180028 24 264 0.0 0.0 0.00 0.00 0.00 61 1012.5
20260906175846 24 264 0.0 0.0 0.00 0.00 0.00 59 1012.6
20260906175740 24 263 0.0 0.0 0.00 0.00 0.00 59 1012.6
20260906175658 24 67 0.0 0.0 0.00 0.00 0.00 59 1012.6
20260906175654 24 262 0.0 0.0 0.00 0.00 0.00 58 1012.6
20260906175528 24 86 0.0 0.0 0.00 0.00 0.00 59 1012.6
20260906175509 24 86 0.0 0.0 0.00 0.00 0.00 60 1012.7
20260906175356 24 351 0.0 0.0 0.00 0.00 0.00 60 1012.6
20260906175240 25 321 0.0 0.0 0.00 0.00 0.00 61 1012.6
20260906175144 25 32 0.0 0.0 0.00 0.00 0.00 59 1012.6
20260906175044 25 93 0.0 0.0 0.00 0.00 0.00 60 1012.6
20260906175028 25 93 0.0 0.0 0.00 0.00 0.00 60 1012.4
20260906175025 25 105 0.0 0.0 0.00 0.00 0.00 61 1012.5
20260906175020 25 93 0.0 0.0 0.00 0.00 0.00 60 1012.5
20260906174751 25 136 0.0 0.0 0.00 0.00 0.00 63 1012.6
20260906174543 25 338 0.0 0.0 0.00 0.00 0.00 60 1012.3
20260906174441 25 338 0.0 0.0 0.00 0.00 0.00 61 1012.4
20260906174340 25 236 0.0 0.0 0.00 0.00 0.00 59 1012.5
20260906174240 25 44 0.0 0.0 0.00 0.00 0.00 59 1012.5
20260906174139 25 45 0.0 0.0 0.00 0.00 0.00 59 1012.5
20260906174120 25 70 0.0 0.0 0.00 0.00 0.00 60 1012.6
20260906174115 25 56 0.0 0.0 0.00 0.00 0.00 60 1012.5
20260906174028 25 55 0.0 0.0 0.00 0.00 0.00 59 1012.5
20260906174002 25 55 0.0 0.0 0.00 0.00 0.00 59 1012.6
20260906173739 25 66 0.0 0.0 0.00 0.00 0.00 61 1012.6
20260906173636 25 319 0.0 0.0 0.00 0.00 0.00 60 1012.6
20260906173536 25 313 0.0 0.0 0.00 0.00 0.00 62 1012.7
20260906173528 25 311 0.0 0.0 0.00 0.00 0.00 62 1012.6
20260906173435 25 311 0.0 0.0 0.00 0.00 0.00 62 1012.7
20260906173335 24 311 0.0 0.0 0.00 0.00 0.00 60 1012.8
20260906173235 24 311 0.0 0.0 0.00 0.00 0.00 59 1012.8
20260906173147 24 5 0.0 0.0 0.00 0.00 0.00 61 1012.8
20260906173143 24 19 0.0 0.0 0.00 0.00 0.00 61 1012.8
20260906173028 24 12 0.0 0.0 0.00 0.00 0.00 61 1012.7
20260906172933 24 53 0.0 0.0 0.00 0.00 0.00 61 1012.8
20260906172833 24 333 0.0 0.0 0.00 0.00 0.00 61 1012.9
20260906172751 24 333 0.0 0.0 0.00 0.00 0.00 61 1012.8
20260906172740 24 333 0.0 0.0 0.00 0.00 0.00 61 1012.9
20260906172558 24 331 0.0 0.0 0.00 0.00 0.00 61 1012.7
20260906172531 24 332 0.0 0.0 0.00 0.00 0.00 62 1012.8
20260906172430 24 335 0.0 0.0 0.00 0.00 0.00 61 1012.8
20260906172330 24 317 0.0 0.0 0.00 0.00 0.00 61 1012.8
20260906172236 24 42 0.0 0.0 0.00 0.00 0.00 62 1012.7
20260906172230 24 65 0.0 0.0 0.00 0.00 0.00 61 1012.7
20260906172130 24 65 0.0 0.0 0.00 0.00 0.00 61 1012.8
20260906172043 24 355 0.0 0.0 0.00 0.00 0.00 63 1012.7
20260906172029 24 116 0.0 0.0 0.00 0.00 0.00 63 1012.9
20260906171929 24 342 0.0 0.0 0.00 0.00 0.00 64 1012.8
20260906171828 24 339 0.0 0.0 0.00 0.00 0.00 63 1012.9
20260906171728 24 69 0.0 0.0 0.00 0.00 0.00 62 1012.9
20260906171627 24 17 0.0 0.0 0.00 0.00 0.00 62 1012.9
20260906171528 24 355 0.0 0.0 0.00 0.00 0.00 63 1012.8
20260906171427 24 347 0.0 0.0 0.00 0.00 0.00 64 1012.9
20260906171359 24 12 0.0 0.0 0.00 0.00 0.00 64 1012.9
20260906171355 24 5 0.0 0.0 0.00 0.00 0.00 65 1012.9
20260906171349 24 355 0.0 0.0 0.00 0.00 0.00 65 1012.9
20260906171340 24 11 0.0 0.0 0.00 0.00 0.00 64 1012.9
20260906171029 23 308 0.0 0.0 0.00 0.00 0.00 67 1012.8
20260906171024 24 308 0.0 0.0 0.00 0.00 0.00 67 1012.9
20260906170951 23 51 0.0 0.0 0.00 0.00 0.00 66 1013.0
20260906170924 23 308 0.0 0.0 0.00 0.00 0.00 67 1012.9
20260906170840 23 308 0.0 0.0 0.00 0.00 0.00 66 1013.0
20260906170723 23 51 0.0 0.0 0.00 0.00 0.00 66 1013.0
20260906170620 23 51 0.0 0.0 0.00 0.00 0.00 66 1013.0
20260906170528 23 54 0.0 0.0 0.00 0.00 0.00 66 1012.9
20260906170520 23 51 0.0 0.0 0.00 0.00 0.00 66 1013.0
20260906170420 23 24 0.0 0.0 0.00 0.00 0.00 68 1013.0
20260906170339 23 324 0.0 0.0 0.00 0.00 0.00 67 1012.8
20260906170334 23 94 0.0 0.0 0.00 0.00 0.00 66 1012.9
20260906170325 23 324 0.0 0.0 0.00 0.00 0.00 67 1012.8
20260906170131 23 340 0.0 0.0 0.00 0.00 0.00 67 1012.7
20260906170127 23 340 0.0 0.0 0.00 0.00 0.00 66 1012.7
20260906170043 23 339 0.0 0.0 0.00 0.00 0.00 67 1012.6
20260906165918 23 341 0.0 0.0 0.00 0.00 0.00 68 1012.7
20260906165817 23 20 0.0 0.0 0.00 0.00 0.00 69 1012.8
20260906165728 23 20 0.0 0.0 0.00 0.00 0.00 68 1012.7
20260906165716 23 20 0.0 0.0 0.00 0.00 0.00 68 1012.7
20260906165615 23 296 0.0 0.0 0.00 0.00 0.00 68 1012.9
20260906165528 23 138 0.0 0.0 0.00 0.00 0.00 67 1012.8
20260906165514 23 136 0.0 0.0 0.00 0.00 0.00 68 1012.9
20260906165428 23 95 0.0 0.0 0.00 0.00 0.00 67 1012.9
20260906165424 23 138 0.0 0.0 0.00 0.00 0.00 67 1012.9
20260906165227 23 65 0.0 0.0 0.00 0.00 0.00 66 1012.8
20260906165213 23 64 0.0 0.0 0.00 0.00 0.00 66 1012.8
20260906165114 23 64 0.0 0.0 0.00 0.00 0.00 67 1012.8
20260906165055 23 61 0.0 0.0 0.00 0.00 0.00 67 1012.8
20260906165049 23 61 0.0 0.0 0.00 0.00 0.00 67 1012.8
20260906165028 23 61 0.0 0.0 0.00 0.00 0.00 67 1012.7
20260906164827 23 47 0.0 0.0 0.00 0.00 0.00 67 1012.8
20260906164818 23 40 0.0 0.0 0.00 0.00 0.00 67 1012.9
20260906164611 23 88 0.0 0.0 0.00 0.00 0.00 67 1012.9
20260906164529 23 315 0.0 0.0 0.00 0.00 0.00 67 1012.8
20260906164511 23 315 0.0 0.0 0.00 0.00 0.00 67 1012.9
20260906164451 23 76 0.0 0.0 0.00 0.00 0.00 67 1012.9
20260906164411 23 315 0.0 0.0 0.00 0.00 0.00 66 1012.9
20260906164335 23 53 0.0 0.0 0.00 0.00 0.00 67 1012.9
20260906164209 23 76 0.0 0.0 0.00 0.00 0.00 67 1012.9
20260906164109 23 91 0.0 0.0 0.00 0.00 0.00 68 1012.8
20260906164028 23 355 0.0 0.0 0.00 0.00 0.00 68 1012.7
20260906164009 23 355 0.0 0.0 0.00 0.00 0.00 68 1012.8
20260906163909 23 253 0.0 0.0 0.00 0.00 0.00 70 1012.8
20260906163809 23 313 0.0 0.0 0.00 0.00 0.00 70 1012.8
20260906163720 22 18 0.0 0.0 0.00 0.00 0.00 70 1012.7
20260906163716 22 281 0.0 0.0 0.00 0.00 0.00 69 1012.8
20260906163528 22 346 0.0 0.0 0.00 0.00 0.00 72 1012.7
20260906163414 22 88 0.0 0.0 0.00 0.00 0.00 71 1012.9
20260906163245 22 74 0.0 0.0 0.00 0.00 0.00 72 1012.9
20260906163239 22 65 0.0 0.0 0.00 0.00 0.00 72 1013.0
20260906163127 22 49 0.0 0.0 0.00 0.00 0.00 70 1013.0
20260906163121 22 68 0.0 0.0 0.00 0.00 0.00 72 1013.0
20260906163028 22 64 0.0 0.0 0.00 0.00 0.00 70 1012.9
20260906162803 22 63 0.0 0.0 0.00 0.00 0.00 70 1013.1
20260906162723 22 62 0.0 0.0 0.00 0.00 0.00 70 1013.1
20260906162702 22 0 0.0 0.0 0.00 0.00 0.00 70 1013.1
20260906162615 22 103 0.0 0.0 0.00 0.00 0.00 70 1013.1
20260906162610 22 103 0.0 0.0 0.00 0.00 0.00 71 1013.1
20260906162528 22 103 0.0 0.0 0.00 0.00 0.00 70 1013.0
20260906162415 22 114 0.0 0.0 0.00 0.00 0.00 71 1013.1
20260906162411 22 104 0.0 0.0 0.00 0.00 0.00 71 1013.1
20260906162222 22 0 0.0 0.0 0.00 0.00 0.00 70 1013.1
20260906162200 23 0 0.0 0.0 0.00 0.00 0.00 70 1013.1
20260906162101 23 0 0.0 0.0 0.00 0.00 0.00 69 1013.1
20260906162043 23 346 0.0 0.0 0.00 0.00 0.00 68 1013.0
20260906161959 23 346 0.0 0.0 0.00 0.00 0.00 68 1013.1
20260906161859 23 346 0.0 0.0 0.00 0.00 0.00 68 1013.0
20260906161759 23 346 0.0 0.0 0.00 0.00 0.00 67 1013.0
20260906161721 23 346 0.0 0.0 0.00 0.00 0.00 67 1013.0
20260906161658 23 346 0.0 0.0 0.00 0.00 0.00 67 1013.0
20260906161558 23 346 0.0 0.0 0.00 0.00 0.00 68 1013.0
20260906161529 23 346 0.0 0.0 0.00 0.00 0.00 66 1012.9
20260906161458 23 346 0.0 0.0 0.00 0.00 0.00 66 1013.0
20260906161411 23 331 0.0 0.0 0.00 0.00 0.00 67 1013.0
20260906161406 23 346 0.0 0.0 0.00 0.00 0.00 66 1013.0
20260906161220 23 331 0.0 0.0 0.00 0.00 0.00 67 1013.0
20260906161156 23 331 0.0 0.0 0.00 0.00 0.00 67 1013.1
20260906161056 23 347 0.0 0.0 0.00 0.00 0.00 66 1013.0
20260906161028 23 345 0.0 0.0 0.00 0.00 0.00 66 1012.9
20260906160956 23 345 0.0 0.0 0.00 0.00 0.00 66 1013.0
20260906160855 24 345 0.0 0.0 0.00 0.00 0.00 65 1012.9
20260906160755 24 344 0.0 0.0 0.00 0.00 0.00 66 1012.9
20260906160720 24 344 0.0 0.0 0.00 0.00 0.00 66 1012.9
20260906160654 24 344 0.0 0.0 0.00 0.00 0.00 66 1009.3
20260906160554 24 346 0.0 0.0 0.00 0.00 0.00 67 1009.3
20260906160528 23 19 0.0 0.0 0.00 0.00 0.00 67 1009.2
20260906160455 23 24 0.0 0.0 0.00 0.00 0.00 67 1009.3
20260906160440 23 72 0.0 0.0 0.00 0.00 0.00 67 1009.3
20260906160354 23 349 0.0 0.0 0.00 0.00 0.00 67 1009.3
20260906160327 23 330 0.0 0.0 0.00 0.00 0.00 67 1009.3
20260906160153 23 72 0.0 0.0 0.00 0.00 0.00 68 1009.3
20260906160052 23 76 0.0 0.0 0.00 0.00 0.00 70 1009.3
20260906160028 23 355 0.0 0.0 0.00 0.00 0.00 67 1009.2
20260906155951 23 355 0.0 0.0 0.00 0.00 0.00 67 1009.3
20260906155852 23 34 0.0 0.0 0.00 0.00 0.00 68 1009.3
20260906155752 23 67 0.0 0.0 0.00 0.00 0.00 68 1009.2
20260906155717 23 50 0.0 0.0 0.00 0.00 0.00 68 1009.2
20260906155651 23 63 0.0 0.0 0.00 0.00 0.00 67 1009.2
20260906155605 23 342 0.0 0.0 0.00 0.00 0.00 68 1009.1
20260906155559 23 100 0.0 0.0 0.00 0.00 0.00 68 1009.1
20260906155528 23 342 0.0 0.0 0.00 0.00 0.00 68 1009.0
20260906155350 23 341 0.0 0.0 0.00 0.00 0.00 69 1009.0
20260906155249 23 16 0.0 0.0 0.00 0.00 0.00 68 1009.1
20260906155216 23 102 0.0 0.0 0.00 0.00 0.00 68 1009.1
20260906155149 23 252 0.0 0.0 0.00 0.00 0.00 69 1009.0
20260906155102 23 265 0.0 0.0 0.00 0.00 0.00 69 1009.1
20260906155056 23 265 0.0 0.0 0.00 0.00 0.00 69 1008.9
20260906155028 23 265 0.0 0.0 0.00 0.00 0.00 69 1009.0
20260906154927 23 265 0.0 0.0 0.00 0.00 0.00 70 1013.0
20260906154815 23 265 0.0 0.0 0.00 0.00 0.00 67 1013.0
20260906154810 23 265 0.0 0.0 0.00 0.00 0.00 69 1013.0
20260906154802 23 265 0.0 0.0 0.00 0.00 0.00 68 1013.0
20260906154528 23 265 0.0 0.0 0.00 0.00 0.00 68 1008.2
20260906154447 23 265 0.0 0.0 0.00 0.00 0.00 68 1008.3
20260906154440 23 338 0.0 0.0 0.00 0.00 0.00 69 1008.3
20260906154436 23 229 0.0 0.0 0.00 0.00 0.00 70 1008.3
20260906154430 23 264 0.0 0.0 0.00 0.00 0.00 68 1008.3
20260906154312 23 276 0.0 0.0 0.00 0.00 0.00 70 1008.3
20260906154052 23 5 0.0 0.0 0.00 0.00 0.00 70 1008.3
20260906154029 23 5 0.0 0.0 0.00 0.00 0.00 70 1008.1
20260906153843 23 5 0.0 0.0 0.00 0.00 0.00 70 1011.9
20260906153742 23 5 0.0 0.0 0.00 0.00 0.00 69 1011.9
20260906153714 23 338 0.0 0.0 0.00 0.00 0.00 70 1011.9
20260906153642 23 334 0.0 0.0 0.00 0.00 0.00 70 1011.9
20260906153553 23 309 0.0 0.0 0.00 0.00 0.00 72 1008.8
20260906153548 23 336 0.0 0.0 0.00 0.00 0.00 70 1008.8
20260906153543 23 273 0.0 0.0 0.00 0.00 0.00 70 1008.7
20260906153405 23 247 0.0 0.0 0.00 0.00 0.00 72 1008.8
20260906153252 22 245 0.0 0.0 0.00 0.00 0.00 73 1007.6
20260906153244 22 244 0.0 0.0 0.00 0.00 0.00 71 1007.6
20260906153037 22 286 0.0 0.0 0.00 0.00 0.00 71 1007.7
20260906153028 22 292 0.0 0.0 0.00 0.00 0.00 71 1007.6
20260906152937 22 345 0.0 0.0 0.00 0.00 0.00 73 1007.7
20260906152835 22 30 0.0 0.0 0.00 0.00 0.00 73 1007.7
20260906152735 22 32 0.0 0.0 0.00 0.00 0.00 72 1007.7
20260906152712 22 37 0.0 0.0 0.00 0.00 0.00 72 1007.7
20260906152635 22 292 0.0 0.0 0.00 0.00 0.00 72 1007.7
20260906152533 22 292 0.0 0.0 0.00 0.00 0.00 72 1007.2
20260906152529 22 300 0.0 0.0 0.00 0.00 0.00 72 1007.2
20260906152447 22 336 0.0 0.0 0.00 0.00 0.00 73 1007.4
20260906152441 22 45 0.0 0.0 0.00 0.00 0.00 72 1007.3
20260906152232 22 333 0.0 0.0 0.00 0.00 0.00 72 1013.0
20260906152212 22 333 0.0 0.0 0.00 0.00 0.00 72 1013.0
20260906152131 22 345 0.0 0.0 0.00 0.00 0.00 72 1013.0
20260906152043 22 317 0.0 0.0 0.00 0.00 0.00 72 1013.0
20260906152029 22 319 0.0 0.0 0.00 0.00 0.00 73 1013.0
20260906151941 22 316 0.0 0.0 0.00 0.00 0.00 73 1013.0
20260906151937 22 319 0.0 0.0 0.00 0.00 0.00 72 1013.1
20260906151727 22 315 0.0 0.0 0.00 0.00 0.00 74 1012.3
20260906151713 22 314 0.0 0.0 0.00 0.00 0.00 74 1012.3
20260906151626 22 271 0.0 0.0 0.00 0.00 0.00 74 1012.3
20260906151543 22 319 0.0 0.0 0.00 0.00 0.00 73 1012.2
20260906151541 22 319 0.0 0.0 0.00 0.00 0.00 73 1012.3
20260906151536 22 319 0.0 0.0 0.00 0.00 0.00 73 1012.3
20260906151325 22 341 0.0 0.0 0.00 0.00 0.00 73 1012.3
20260906151225 22 301 0.0 0.0 0.00 0.00 0.00 74 1007.0
20260906151209 22 302 0.0 0.0 0.00 0.00 0.00 74 1007.0
20260906151124 22 283 0.0 0.0 0.00 0.00 0.00 74 1007.0
20260906151029 22 57 0.0 0.0 0.00 0.00 0.00 74 1012.5
20260906151023 22 307 0.0 0.0 0.00 0.00 0.00 74 1012.6
20260906150922 22 60 0.0 0.0 0.00 0.00 0.00 74 1012.6
20260906150822 22 60 0.0 0.0 0.00 0.00 0.00 72 1012.6
20260906150709 22 61 0.0 0.0 0.00 0.00 0.00 71 1012.2
20260906150621 22 346 0.0 0.0 0.00 0.00 0.00 71 1012.8
20260906150544 22 0 0.0 0.0 0.00 0.00 0.00 71 1012.8
20260906150528 22 360 0.0 0.0 0.00 0.00 0.00 71 1012.7
20260906150430 22 39 0.0 0.0 0.00 0.00 0.00 71 1012.8
20260906150240 22 355 0.0 0.0 0.00 0.00 0.00 71 1012.7
20260906150235 22 349 0.0 0.0 0.00 0.00 0.00 71 1012.7
20260906150228 22 347 0.0 0.0 0.00 0.00 0.00 71 1012.7
20260906150028 22 318 0.0 0.0 0.00 0.00 0.00 71 1012.5
20260906150020 22 316 0.0 0.0 0.00 0.00 0.00 71 1012.7
20260906145918 22 302 0.0 0.0 0.00 0.00 0.00 70 1012.6
20260906145817 23 283 0.0 0.0 0.00 0.00 0.00 71 1011.7
20260906145706 23 321 0.0 0.0 0.00 0.00 0.00 71 1011.7
20260906145615 23 321 0.0 0.0 0.00 0.00 0.00 71 1012.7
20260906145529 23 355 0.0 0.0 0.00 0.00 0.00 72 1012.6
20260906145515 23 355 0.0 0.0 0.00 0.00 0.00 72 1012.7
20260906145429 23 323 0.0 0.0 0.00 0.00 0.00 73 1012.8
20260906145423 23 281 0.0 0.0 0.00 0.00 0.00 72 1012.7
20260906145233 23 323 0.0 0.0 0.00 0.00 0.00 71 1006.4
20260906145221 23 323 0.0 0.0 0.00 0.00 0.00 72 1012.8
20260906145043 23 323 0.0 0.0 0.00 0.00 0.00 71 1006.4
20260906145013 23 323 0.0 0.0 0.00 0.00 0.00 71 1006.4
20260906144912 23 313 0.0 0.0 0.00 0.00 0.00 73 1006.4
20260906144810 23 284 0.0 0.0 0.00 0.00 0.00 73 1009.1
20260906144707 23 311 0.0 0.0 0.00 0.00 0.00 74 1009.1
20260906144609 22 327 0.0 0.0 0.00 0.00 0.00 74 1009.1
20260906144528 22 327 0.0 0.0 0.00 0.00 0.00 74 1006.6
20260906144509 22 327 0.0 0.0 0.00 0.00 0.00 74 1009.1
20260906144422 22 327 0.0 0.0 0.00 0.00 0.00 74 1006.7
20260906144417 22 327 0.0 0.0 0.00 0.00 0.00 75 1006.7
20260906144209 22 327 0.0 0.0 0.00 0.00 0.00 74 1012.0
20260906144107 22 331 0.0 0.0 0.00 0.00 0.00 73 1012.0
20260906144028 22 331 0.0 0.0 0.00 0.00 0.00 72 1012.7
20260906144007 22 331 0.0 0.0 0.00 0.00 0.00 72 1012.8
20260906143906 22 331 0.0 0.0 0.00 0.00 0.00 72 1012.8
20260906143820 22 331 0.0 0.0 0.00 0.00 0.00 72 1013.0
20260906143811 22 331 0.0 0.0 0.00 0.00 0.00 72 1013.0
20260906143606 22 330 0.0 0.0 0.00 0.00 0.00 72 1013.0
20260906143528 22 300 0.0 0.0 0.00 0.00 0.00 71 1013.0
20260906143519 23 300 0.0 0.0 0.00 0.00 0.00 71 1013.1
20260906143514 22 300 0.0 0.0 0.00 0.00 0.00 71 1013.1
20260906143305 23 306 0.0 0.0 0.00 0.00 0.00 70 1013.0
20260906143209 23 306 0.0 0.0 0.00 0.00 0.00 70 1013.0
20260906143203 23 306 0.0 0.0 0.00 0.00 0.00 70 1012.9
20260906143103 23 302 0.0 0.0 0.00 0.00 0.00 71 1012.9
20260906143028 23 327 0.0 0.0 0.00 0.00 0.00 71 1012.7
20260906143004 23 327 0.0 0.0 0.00 0.00 0.00 71 1012.8
20260906142901 23 330 0.0 0.0 0.00 0.00 0.00 70 1012.8
20260906142801 23 330 0.0 0.0 0.00 0.00 0.00 69 1012.8
20260906142706 23 121 0.0 0.0 0.00 0.00 0.00 69 1012.8
20260906142701 23 121 0.0 0.0 0.00 0.00 0.00 69 1012.6
20260906142600 23 123 0.0 0.0 0.00 0.00 0.00 70 1012.5
20260906142528 23 123 0.0 0.0 0.00 0.00 0.00 70 1012.5
20260906142459 23 123 0.0 0.0 0.00 0.00 0.00 70 1012.6
20260906142316 23 355 0.0 0.0 0.00 0.00 0.00 71 1006.7
20260906142310 23 355 0.0 0.0 0.00 0.00 0.00 71 1012.4
20260906142301 23 355 0.0 0.0 0.00 0.00 0.00 71 1006.7
20260906142056 23 351 0.0 0.0 0.00 0.00 0.00 71 1006.7
20260906142028 23 351 0.0 0.0 0.00 0.00 0.00 71 1006.7
20260906141955 23 351 0.0 0.0 0.00 0.00 0.00 71 1006.7
20260906141854 23 350 0.0 0.0 0.00 0.00 0.00 71 1006.7
20260906141813 23 350 0.0 0.0 0.00 0.00 0.00 70 1007.1
20260906141808 23 355 0.0 0.0 0.00 0.00 0.00 70 1007.0
20260906141800 23 355 0.0 0.0 0.00 0.00 0.00 70 1007.1
20260906141553 23 355 0.0 0.0 0.00 0.00 0.00 70 1007.2
20260906141528 23 355 0.0 0.0 0.00 0.00 0.00 70 1007.2
20260906141452 23 355 0.0 0.0 0.00 0.00 0.00 70 1007.2
20260906141352 23 309 0.0 0.0 0.00 0.00 0.00 70 1007.3
20260906141311 23 5 0.0 0.0 0.00 0.00 0.00 70 1007.2
20260906141305 23 321 0.0 0.0 0.00 0.00 0.00 70 1007.3
20260906141258 23 9 0.0 0.0 0.00 0.00 0.00 70 1007.2
20260906141054 23 325 0.0 0.0 0.00 0.00 0.00 72 1007.2
20260906141050 23 342 0.0 0.0 0.00 0.00 0.00 70 1007.2
20260906141028 23 342 0.0 0.0 0.00 0.00 0.00 71 1007.3
20260906141002 22 325 0.0 0.0 0.00 0.00 0.00 72 1007.2
20260906140957 22 69 0.0 0.0 0.00 0.00 0.00 72 1007.4
20260906140953 23 344 0.0 0.0 0.00 0.00 0.00 71 1007.3
20260906140944 23 325 0.0 0.0 0.00 0.00 0.00 71 1007.3
20260906140934 23 324 0.0 0.0 0.00 0.00 0.00 71 1007.2
20260906140605 22 69 0.0 0.0 0.00 0.00 0.00 73 1007.2
20260906140529 22 69 0.0 0.0 0.00 0.00 0.00 72 1007.3
20260906140247 22 300 0.0 0.0 0.00 0.00 0.00 72 1007.5
20260906140204 22 341 0.0 0.0 0.00 0.00 0.00 73 1007.5
20260906140146 22 342 0.0 0.0 0.00 0.00 0.00 72 1007.6
20260906140046 22 314 0.0 0.0 0.00 0.00 0.00 72 1007.5
20260906140029 22 317 0.0 0.0 0.00 0.00 0.00 71 1007.4
20260906135943 22 317 0.0 0.0 0.00 0.00 0.00 71 1007.5
20260906135916 22 317 0.0 0.0 0.00 0.00 0.00 71 1007.5
20260906135912 22 317 0.0 0.0 0.00 0.00 0.00 71 1007.6
20260906135906 22 317 0.0 0.0 0.00 0.00 0.00 71 1007.5
20260906135749 22 317 0.0 0.0 0.00 0.00 0.00 71 1007.5
20260906135542 22 317 0.0 0.0 0.00 0.00 0.00 71 1007.6
20260906135528 22 317 0.0 0.0 0.00 0.00 0.00 71 1007.6
20260906135443 22 317 0.0 0.0 0.00 0.00 0.00 72 1007.6
20260906135341 22 317 0.0 0.0 0.00 0.00 0.00 73 1007.6
20260906135241 22 315 0.0 0.0 0.00 0.00 0.00 73 1007.5
20260906135203 22 315 0.0 0.0 0.00 0.00 0.00 73 1007.6
20260906135140 22 315 0.0 0.0 0.00 0.00 0.00 73 1007.6
20260906135040 22 315 0.0 0.0 0.00 0.00 0.00 72 1007.6
20260906135029 22 315 0.0 0.0 0.00 0.00 0.00 72 1007.6
20260906134939 22 314 0.0 0.0 0.00 0.00 0.00 72 1007.6
20260906134853 22 80 0.0 0.0 0.00 0.00 0.00 71 1007.8
20260906134848 22 79 0.0 0.0 0.00 0.00 0.00 71 1007.7
20260906134703 22 78 0.0 0.0 0.00 0.00 0.00 72 1007.9
20260906134639 22 85 0.0 0.0 0.00 0.00 0.00 72 1007.9
20260906134607 22 85 0.0 0.0 0.00 0.00 0.00 74 1007.9
20260906134603 22 80 0.0 0.0 0.00 0.00 0.00 74 1007.9
20260906134557 22 85 0.0 0.0 0.00 0.00 0.00 73 1007.9
20260906134528 22 85 0.0 0.0 0.00 0.00 0.00 73 1007.9
20260906134238 22 49 0.0 0.0 0.00 0.00 0.00 74 1008.1
20260906134202 22 49 0.0 0.0 0.00 0.00 0.00 74 1008.0
20260906134138 22 49 0.0 0.0 0.00 0.00 0.00 74 1008.0
20260906134038 22 69 0.0 0.0 0.00 0.00 0.00 74 1008.0
20260906134028 22 69 0.0 0.0 0.00 0.00 0.00 75 1007.9
20260906133937 22 69 0.0 0.0 0.00 0.00 0.00 75 1007.9
20260906133837 22 69 0.0 0.0 0.00 0.00 0.00 74 1008.0
20260906133737 22 69 0.0 0.0 0.00 0.00 0.00 74 1007.9
20260906133702 22 105 0.0 0.0 0.00 0.00 0.00 74 1007.9
20260906133636 22 105 0.0 0.0 0.00 0.00 0.00 74 1007.9
20260906133551 22 105 0.0 0.0 0.00 0.00 0.00 74 1008.0
20260906133546 22 105 0.0 0.0 0.00 0.00 0.00 73 1007.9
20260906133543 22 105 0.0 0.0 0.00 0.00 0.00 74 1008.0
20260906133336 22 90 0.0 0.0 0.00 0.00 0.00 75 1007.9
20260906133236 22 337 0.0 0.0 0.00 0.00 0.00 74 1007.7
20260906133158 22 337 0.0 0.0 0.00 0.00 0.00 74 1008.0
20260906133044 22 332 0.0 0.0 0.00 0.00 0.00 74 1008.1
20260906132921 22 84 0.0 0.0 0.00 0.00 0.00 76 1008.3
20260906132835 22 84 0.0 0.0 0.00 0.00 0.00 74 1008.1
20260906132816 22 84 0.0 0.0 0.00 0.00 0.00 76 1008.4
20260906132809 22 84 0.0 0.0 0.00 0.00 0.00 76 1008.2
20260906132655 22 84 0.0 0.0 0.00 0.00 0.00 76 1008.2
20260906132650 22 84 0.0 0.0 0.00 0.00 0.00 76 1008.3
20260906132544 22 84 0.0 0.0 0.00 0.00 0.00 76 1008.2
20260906132331 22 332 0.0 0.0 0.00 0.00 0.00 78 1008.2
20260906132231 21 331 0.0 0.0 0.00 0.00 0.00 78 1008.2
20260906132200 21 331 0.0 0.0 0.00 0.00 0.00 78 1008.3
20260906132131 21 331 0.0 0.0 0.00 0.00 0.00 78 1008.3
20260906132059 21 331 0.0 0.0 0.00 0.00 0.00 77 1008.2
20260906132045 21 333 0.0 0.0 0.00 0.00 0.00 78 1008.3
20260906132040 21 331 0.0 0.0 0.00 0.00 0.00 77 1008.2
20260906131830 21 332 0.0 0.0 0.00 0.00 0.00 78 1008.5
20260906131730 21 332 0.0 0.0 0.00 0.00 0.00 78 1008.4
20260906131700 21 332 0.0 0.0 0.00 0.00 0.00 78 1008.4
20260906131630 21 332 0.0 0.0 0.00 0.00 0.00 77 1008.4
20260906131543 21 334 0.0 0.0 0.00 0.00 0.00 79 1008.4
20260906131529 21 334 0.0 0.0 0.00 0.00 0.00 79 1008.4
20260906131429 21 106 0.0 0.0 0.00 0.00 0.00 78 1008.5
20260906131327 21 107 0.0 0.0 0.00 0.00 0.00 79 1008.3
20260906131226 21 88 0.0 0.0 0.00 0.00 0.00 80 1008.4
20260906131200 21 89 0.0 0.0 0.00 0.00 0.00 80 1008.6
20260906131139 21 264 0.0 0.0 0.00 0.00 0.00 80 1008.6
20260906131134 21 264 0.0 0.0 0.00 0.00 0.00 80 1008.6
20260906131028 21 264 0.0 0.0 0.00 0.00 0.00 80 1008.5
20260906130924 21 264 0.0 0.0 0.00 0.00 0.00 80 1008.6
20260906130824 21 264 0.0 0.0 0.00 0.00 0.00 81 1008.9
20260906130723 21 264 0.0 0.0 0.00 0.00 0.00 82 1009.3
20260906130700 21 264 0.0 0.0 0.00 0.00 0.00 82 1008.7
20260906130637 20 264 0.0 0.0 0.00 0.00 0.00 83 1008.9
20260906130631 20 264 0.0 0.0 0.00 0.00 0.00 82 1008.7
20260906130528 20 264 0.0 0.0 0.00 0.00 0.00 83 1008.9
20260906130450 20 264 0.0 0.0 0.00 0.00 0.00 83 1008.9
20260906130446 20 264 0.0 0.0 0.00 0.00 0.00 83 1009.1
20260906130442 20 264 0.0 0.0 0.00 0.00 0.00 83 1009.0
20260906130159 20 264 0.0 0.0 0.00 0.00 0.00 82 1008.9
20260906130123 20 264 0.0 0.0 0.00 0.00 0.00 82 1008.9
20260906130028 20 264 0.0 0.0 0.00 0.00 0.00 83 1011.5
20260906130022 20 264 0.0 0.0 0.00 0.00 0.00 83 1008.8
20260906125922 20 264 0.0 0.0 0.00 0.00 0.00 83 1011.5
20260906125821 20 264 0.0 0.0 0.00 0.00 0.00 83 1011.5
20260906125719 20 264 0.0 0.0 0.00 0.00 0.00 84 1011.5
20260906125658 20 264 0.0 0.0 0.00 0.00 0.00 84 1011.9
20260906125619 20 263 0.0 0.0 0.00 0.00 0.00 84 1011.9
20260906125543 20 325 0.0 0.0 0.00 0.00 0.00 85 1012.2
20260906125516 20 325 0.0 0.0 0.00 0.00 0.00 85 1012.1
20260906125413 20 325 0.0 0.0 0.00 0.00 0.00 85 1012.2
20260906125312 20 325 0.0 0.0 0.00 0.00 0.00 86 1012.2
20260906125212 20 326 0.0 0.0 0.00 0.00 0.00 86 1012.2
20260906125158 20 326 0.0 0.0 0.00 0.00 0.00 86 1012.2
20260906125113 20 327 0.0 0.0 0.00 0.00 0.00 85 1012.2
20260906125028 20 327 0.0 0.0 0.00 0.00 0.00 86 1012.2
20260906125011 20 327 0.0 0.0 0.00 0.00 0.00 86 1012.1
20260906124925 19 331 0.0 0.0 0.00 0.00 0.00 88 1012.2
20260906124919 20 320 0.0 0.0 0.00 0.00 0.00 88 1012.2
20260906124710 19 331 0.0 0.0 0.00 0.00 0.00 89 1012.2
20260906124657 19 331 0.0 0.0 0.00 0.00 0.00 89 1012.2
20260906124609 19 331 0.0 0.0 0.00 0.00 0.00 89 1012.2
20260906124529 19 331 0.0 0.0 0.00 0.00 0.00 89 1012.2
20260906124509 19 331 0.0 0.0 0.00 0.00 0.00 89 1012.2
20260906124409 19 331 0.0 0.0 0.00 0.00 0.00 89 1012.2
20260906124308 19 331 0.0 0.0 0.00 0.00 0.00 90 1012.2
20260906124208 19 332 0.0 0.0 0.00 0.00 0.00 91 1012.1
20260906124155 18 332 0.0 0.0 0.00 0.00 0.00 91 1012.2
20260906124108 18 332 0.0 0.0 0.00 0.00 0.00 91 1012.2
20260906124028 18 332 0.0 0.0 0.00 0.00 0.00 91 1012.1
20260906124007 18 332 0.0 0.0 0.00 0.00 0.00 91 1012.2
20260906123907 18 333 0.0 0.0 0.00 0.00 0.00 92 1012.1
20260906123807 18 333 0.0 0.0 0.00 0.00 0.00 92 1012.1
20260906123706 18 333 0.0 0.0 0.00 0.00 0.00 92 1012.2
20260906123652 18 333 0.0 0.0 0.00 0.00 0.00 92 1012.2
20260906123606 18 333 0.0 0.0 0.00 0.00 0.00 92 1012.1
20260906123528 18 333 0.0 0.0 0.00 0.00 0.00 92 1012.1
20260906123506 18 333 0.0 0.0 0.00 0.00 0.00 92 1012.1
20260906123427 18 333 0.0 0.0 0.00 0.00 0.00 93 1012.1
20260906123423 18 333 0.0 0.0 0.00 0.00 0.00 93 1012.2
20260906123417 18 333 0.0 0.0 0.00 0.00 0.00 93 1012.1
20260906123259 18 333 0.0 0.0 0.00 0.00 0.00 93 1012.2
20260906123102 18 333 0.0 0.0 0.00 0.00 0.00 93 1012.2
20260906123033 18 340 0.0 0.0 0.00 0.00 0.00 94 1012.2
20260906123028 18 340 0.0 0.0 0.00 0.00 0.00 94 1012.2
20260906122921 17 342 0.0 0.0 0.00 0.00 0.00 94 1012.1
20260906122916 18 341 0.0 0.0 0.00 0.00 0.00 94 1012.1
20260906122907 18 341 0.0 0.0 0.00 0.00 0.00 94 1012.1
20260906122601 17 232 0.0 0.0 0.00 0.00 0.00 94 1012.1
20260906122529 17 232 0.0 0.0 0.00 0.00 0.00 95 1012.2
20260906122514 17 232 0.0 0.0 0.00 0.00 0.00 95 1012.1
20260906122510 17 232 0.0 0.0 0.00 0.00 0.00 95 1012.1
20260906122300 17 232 0.0 0.0 0.00 0.00 0.00 95 1012.0
20260906122149 17 232 0.0 0.0 0.00 0.00 0.00 95 1012.0
20260906122059 17 232 0.0 0.0 0.00 0.00 0.00 95 1012.0
20260906122028 17 232 0.0 0.0 0.00 0.00 0.00 95 1012.1
20260906121959 17 232 0.0 0.0 0.00 0.00 0.00 95 1012.0
20260906121859 17 232 0.0 0.0 0.00 0.00 0.00 95 1012.0
20260906121757 17 232 0.0 0.0 0.00 0.00 0.00 96 1012.0
20260906121657 17 232 0.0 0.0 0.00 0.00 0.00 96 1012.0
20260906121647 17 230 0.0 0.0 0.00 0.00 0.00 96 1012.0
20260906121557 17 230 0.0 0.0 0.00 0.00 0.00 96 1012.0
20260906121529 17 230 0.0 0.0 0.00 0.00 0.00 96 1012.1
20260906121457 17 230 0.0 0.0 0.00 0.00 0.00 96 1012.0
20260906121357 17 230 0.0 0.0 0.00 0.00 0.00 96 1012.1
20260906121256 17 230 0.0 0.0 0.00 0.00 0.00 96 1012.1
20260906121145 17 230 0.0 0.0 0.00 0.00 0.00 96 1012.1
20260906121123 17 230 0.0 0.0 0.00 0.00 0.00 96 1012.1
20260906121118 17 230 0.0 0.0 0.00 0.00 0.00 96 1012.1
20260906121114 17 230 0.0 0.0 0.00 0.00 0.00 96 1012.1
20260906121029 17 230 0.0 0.0 0.00 0.00 0.00 96 1012.2
20260906120753 17 230 0.0 0.0 0.00 0.00 0.00 97 1012.1
20260906120653 17 230 0.0 0.0 0.00 0.00 0.00 96 1012.1
20260906120643 17 230 0.0 0.0 0.00 0.00 0.00 96 1012.1
20260906120606 17 230 0.0 0.0 0.00 0.00 0.00 97 1012.1
20260906120602 17 230 0.0 0.0 0.00 0.00 0.00 97 1012.1
20260906120529 17 230 0.0 0.0 0.00 0.00 0.00 97 1012.2
20260906120353 17 230 0.0 0.0 0.00 0.00 0.00 97 1012.1
20260906120252 17 230 0.0 0.0 0.00 0.00 0.00 97 1012.1
20260906120143 17 230 0.0 0.0 0.00 0.00 0.00 97 1012.0
20260906120126 17 230 0.0 0.0 0.00 0.00 0.00 97 1012.0
20260906120121 17 230 0.0 0.0 0.00 0.00 0.00 97 1012.1
20260906120028 17 230 0.0 0.0 0.00 0.00 0.00 97 1012.1
20260906120008 17 230 0.0 0.0 0.00 0.00 0.00 97 1012.0
20260906115642 16 230 0.0 0.0 0.00 0.00 0.00 97 1012.0
20260906115548 16 230 0.0 0.0 0.00 0.00 0.00 97 1012.1
20260906115543 16 230 0.0 0.0 0.00 0.00 0.00 97 1012.2
20260906115449 16 230 0.0 0.0 0.00 0.00 0.00 97 1012.1
20260906115348 16 230 0.0 0.0 0.00 0.00 0.00 97 1012.1
20260906115248 16 230 0.0 0.0 0.00 0.00 0.00 97 1012.1
20260906115206 16 230 0.0 0.0 0.00 0.00 0.00 97 1012.2
20260906115154 16 230 0.0 0.0 0.00 0.00 0.00 97 1012.2
20260906115028 16 230 0.0 0.0 0.00 0.00 0.00 97 1012.4
20260906115000 16 230 0.0 0.0 0.00 0.00 0.00 97 1012.2
20260906114956 16 230 0.0 0.0 0.00 0.00 0.00 97 1012.3
20260906114746 16 230 0.0 0.0 0.00 0.00 0.00 97 1012.3
20260906114638 16 230 0.0 0.0 0.00 0.00 0.00 97 1012.3
20260906114607 16 230 0.0 0.0 0.00 0.00 0.00 97 1012.3
20260906114529 16 230 0.0 0.0 0.00 0.00 0.00 97 1012.3
20260906114453 16 230 0.0 0.0 0.00 0.00 0.00 97 1012.2
20260906114258 15 230 0.0 0.0 0.00 0.00 0.00 97 1012.2
20260906114253 15 230 0.0 0.0 0.00 0.00 0.00 97 1012.3
20260906114136 15 230 0.0 0.0 0.00 0.00 0.00 97 1012.2
20260906114043 15 230 0.0 0.0 0.00 0.00 0.00 97 1012.2
20260906114028 15 230 0.0 0.0 0.00 0.00 0.00 97 1012.3
20260906113942 15 230 0.0 0.0 0.00 0.00 0.00 97 1012.2
20260906113840 15 230 0.0 0.0 0.00 0.00 0.00 97 1012.1
20260906113740 15 230 0.0 0.0 0.00 0.00 0.00 97 1012.1
20260906113638 15 230 0.0 0.0 0.00 0.00 0.00 97 1012.1
20260906113540 15 230 0.0 0.0 0.00 0.00 0.00 97 1012.1
20260906113529 15 230 0.0 0.0 0.00 0.00 0.00 97 1012.2
20260906113452 15 230 0.0 0.0 0.00 0.00 0.00 97 1012.1
20260906113448 15 230 0.0 0.0 0.00 0.00 0.00 97 1012.1
20260906113238 15 230 0.0 0.0 0.00 0.00 0.00 97 1012.1
20260906113157 15 230 0.0 0.0 0.00 0.00 0.00 97 1012.1
20260906113146 15 230 0.0 0.0 0.00 0.00 0.00 97 1012.1
20260906113028 15 230 0.0 0.0 0.00 0.00 0.00 97 1012.1
20260906112938 15 230 0.0 0.0 0.00 0.00 0.00 97 1012.0
20260906112850 15 230 0.0 0.0 0.00 0.00 0.00 97 1012.0
20260906112846 15 230 0.0 0.0 0.00 0.00 0.00 97 1012.1
20260906112708 15 230 0.0 0.0 0.00 0.00 0.00 97 1011.9
20260906112704 15 231 0.0 0.0 0.00 0.00 0.00 97 1011.9
20260906112652 15 230 0.0 0.0 0.00 0.00 0.00 97 1012.0
20260906112543 15 231 0.0 0.0 0.00 0.00 0.00 97 1012.0
20260906112335 14 231 0.0 0.0 0.00 0.00 0.00 97 1011.8
20260906112234 14 231 0.0 0.0 0.00 0.00 0.00 97 1011.8
20260906112152 14 230 0.0 0.0 0.00 0.00 0.00 97 1011.8
20260906112141 14 231 0.0 0.0 0.00 0.00 0.00 97 1011.8
20260906112029 14 230 0.0 0.0 0.00 0.00 0.00 97 1012.0
20260906111933 14 230 0.0 0.0 0.00 0.00 0.00 97 1011.8
20260906111840 14 230 0.0 0.0 0.00 0.00 0.00 96 1011.8
20260906111633 14 230 0.0 0.0 0.00 0.00 0.00 96 1011.8
20260906111543 14 230 0.0 0.0 0.00 0.00 0.00 96 1011.8
20260906111539 14 230 0.0 0.0 0.00 0.00 0.00 96 1011.8
20260906111529 14 230 0.0 0.0 0.00 0.00 0.00 96 1012.0
20260906111329 14 230 0.0 0.0 0.00 0.00 0.00 96 1011.7
20260906111229 14 230 0.0 0.0 0.00 0.00 0.00 96 1011.7
20260906111130 14 230 0.0 0.0 0.00 0.00 0.00 96 1011.7
20260906111029 14 230 0.0 0.0 0.00 0.00 0.00 96 1011.7
20260906110929 14 230 0.0 0.0 0.00 0.00 0.00 96 1011.7
20260906110829 14 230 0.0 0.0 0.00 0.00 0.00 96 1011.7
20260906110726 14 230 0.0 0.0 0.00 0.00 0.00 97 1011.7
20260906110625 14 230 0.0 0.0 0.00 0.00 0.00 97 1011.6
20260906110529 14 230 0.0 0.0 0.00 0.00 0.00 96 1011.8
20260906110525 14 230 0.0 0.0 0.00 0.00 0.00 96 1011.7
20260906110424 13 230 0.0 0.0 0.00 0.00 0.00 96 1011.6
20260906110324 13 230 0.0 0.0 0.00 0.00 0.00 96 1011.6
20260906110223 13 230 0.0 0.0 0.00 0.00 0.00 96 1011.6
20260906110124 13 230 0.0 0.0 0.00 0.00 0.00 96 1011.6
20260906110029 13 230 0.0 0.0 0.00 0.00 0.00 96 1011.8
20260906110023 13 230 0.0 0.0 0.00 0.00 0.00 96 1011.6
20260906110008 13 230 0.0 0.0 0.00 0.00 0.00 96 1011.6
20260906110004 13 230 0.0 0.0 0.00 0.00 0.00 96 1011.6
20260906110000 13 230 0.0 0.0 0.00 0.00 0.00 96 1011.6
20260906105954 13 230 0.0 0.0 0.00 0.00 0.00 96 1011.6
20260906105727 13 230 0.0 0.0 0.00 0.00 0.00 96 1011.6
20260906105557 13 230 0.0 0.0 0.00 0.00 0.00 96 1011.5
20260906105552 13 230 0.0 0.0 0.00 0.00 0.00 96 1011.6
20260906105529 13 230 0.0 0.0 0.00 0.00 0.00 96 1011.7
20260906105329 13 230 0.0 0.0 0.00 0.00 0.00 96 1011.5
20260906105119 13 230 0.0 0.0 0.00 0.00 0.00 96 1011.5
20260906105044 13 230 0.0 0.0 0.00 0.00 0.00 96 1011.6
20260906105019 13 230 0.0 0.0 0.00 0.00 0.00 96 1011.4
20260906104919 13 230 0.0 0.0 0.00 0.00 0.00 96 1011.4
20260906104818 13 230 0.0 0.0 0.00 0.00 0.00 96 1011.4
20260906104731 13 230 0.0 0.0 0.00 0.00 0.00 96 1011.4
20260906104722 13 230 0.0 0.0 0.00 0.00 0.00 96 1011.4
20260906104529 13 230 0.0 0.0 0.00 0.00 0.00 96 1011.6
20260906104516 13 230 0.0 0.0 0.00 0.00 0.00 96 1011.4
20260906104415 13 230 0.0 0.0 0.00 0.00 0.00 96 1011.4
20260906104348 13 230 0.0 0.0 0.00 0.00 0.00 96 1011.4
20260906104314 13 230 0.0 0.0 0.00 0.00 0.00 96 1011.4
20260906104233 13 230 0.0 0.0 0.00 0.00 0.00 96 1011.4
20260906104112 13 230 0.0 0.0 0.00 0.00 0.00 96 1011.4
20260906104029 13 230 0.0 0.0 0.00 0.00 0.00 96 1011.5
20260906104010 13 230 0.0 0.0 0.00 0.00 0.00 96 1011.3
20260906103910 13 230 0.0 0.0 0.00 0.00 0.00 96 1011.3
20260906103810 13 230 0.0 0.0 0.00 0.00 0.00 96 1011.3
20260906103709 13 230 0.0 0.0 0.00 0.00 0.00 96 1011.3
20260906103608 13 230 0.0 0.0 0.00 0.00 0.00 96 1011.3
20260906103529 13 230 0.0 0.0 0.00 0.00 0.00 96 1011.4
20260906103508 13 230 0.0 0.0 0.00 0.00 0.00 96 1011.3
20260906103408 13 230 0.0 0.0 0.00 0.00 0.00 96 1011.2
20260906103334 13 230 0.0 0.0 0.00 0.00 0.00 96 1011.2
20260906103221 13 230 0.0 0.0 0.00 0.00 0.00 96 1011.2
20260906103212 13 230 0.0 0.0 0.00 0.00 0.00 96 1011.2
20260906103029 13 230 0.0 0.0 0.00 0.00 0.00 96 1011.3
20260906103006 13 230 0.0 0.0 0.00 0.00 0.00 96 1011.1
20260906102905 13 230 0.0 0.0 0.00 0.00 0.00 96 1011.1
20260906102842 13 230 0.0 0.0 0.00 0.00 0.00 96 1011.1
20260906102805 13 230 0.0 0.0 0.00 0.00 0.00 96 1011.1
20260906102730 13 230 0.0 0.0 0.00 0.00 0.00 96 1011.1
20260906102604 13 230 0.0 0.0 0.00 0.00 0.00 96 1011.1
20260906102529 13 230 0.0 0.0 0.00 0.00 0.00 96 1011.3
20260906102515 13 230 0.0 0.0 0.00 0.00 0.00 96 1011.1
20260906102512 13 230 0.0 0.0 0.00 0.00 0.00 96 1011.1
20260906102305 13 230 0.0 0.0 0.00 0.00 0.00 96 1011.1
20260906102202 13 230 0.0 0.0 0.00 0.00 0.00 96 1011.1
20260906102122 13 230 0.0 0.0 0.00 0.00 0.00 96 1011.1
20260906102114 13 230 0.0 0.0 0.00 0.00 0.00 96 1011.2
20260906102110 13 230 0.0 0.0 0.00 0.00 0.00 96 1011.1
20260906102029 13 230 0.0 0.0 0.00 0.00 0.00 96 1011.4
20260906101914 13 230 0.0 0.0 0.00 0.00 0.00 96 1011.1
20260906101910 13 230 0.0 0.0 0.00 0.00 0.00 96 1011.1
20260906101700 13 230 0.0 0.0 0.00 0.00 0.00 96 1011.2
20260906101620 13 230 0.0 0.0 0.00 0.00 0.00 96 1011.2
20260906101613 13 230 0.0 0.0 0.00 0.00 0.00 96 1011.1
20260906101608 13 230 0.0 0.0 0.00 0.00 0.00 96 1011.1
20260906101529 13 230 0.0 0.0 0.00 0.00 0.00 96 1011.3
20260906101400 13 230 0.0 0.0 0.00 0.00 0.00 96 1011.1
20260906101259 13 230 0.0 0.0 0.00 0.00 0.00 96 1011.1
20260906101158 13 230 0.0 0.0 0.00 0.00 0.00 96 1011.1
20260906101118 13 230 0.0 0.0 0.00 0.00 0.00 96 1011.1
20260906101110 13 230 0.0 0.0 0.00 0.00 0.00 96 1011.1
20260906101106 13 230 0.0 0.0 0.00 0.00 0.00 96 1011.1
20260906101029 13 230 0.0 0.0 0.00 0.00 0.00 96 1011.3
20260906100857 13 230 0.0 0.0 0.00 0.00 0.00 96 1011.1
20260906100840 13 230 0.0 0.0 0.00 0.00 0.00 96 1011.0
20260906100835 13 230 0.0 0.0 0.00 0.00 0.00 96 1011.0
20260906100556 13 230 0.0 0.0 0.00 0.00 0.00 96 1011.1
20260906100529 13 230 0.0 0.0 0.00 0.00 0.00 96 1011.2
20260906100503 13 230 0.0 0.0 0.00 0.00 0.00 96 1011.0
20260906100459 13 230 0.0 0.0 0.00 0.00 0.00 96 1011.0
20260906100448 13 230 0.0 0.0 0.00 0.00 0.00 96 1011.0
20260906100442 13 230 0.0 0.0 0.00 0.00 0.00 96 1011.0
20260906100055 13 230 0.0 0.0 0.00 0.00 0.00 96 1010.9
20260906100028 13 230 0.0 0.0 0.00 0.00 0.00 96 1011.0
20260906095954 13 230 0.0 0.0 0.00 0.00 0.00 96 1010.8
20260906095927 13 308 0.0 0.0 0.00 0.00 0.00 96 1010.8
20260906095854 13 230 0.0 0.0 0.00 0.00 0.00 96 1010.9
20260906095822 13 308 0.0 0.0 0.00 0.00 0.00 96 1010.9
20260906095816 13 308 0.0 0.0 0.00 0.00 0.00 96 1010.9
20260906095807 13 308 0.0 0.0 0.00 0.00 0.00 96 1010.8
20260906095529 13 308 0.0 0.0 0.00 0.00 0.00 96 1011.0
20260906095452 13 308 0.0 0.0 0.00 0.00 0.00 96 1010.8
20260906095352 13 308 0.0 0.0 0.00 0.00 0.00 96 1010.8
20260906095305 13 308 0.0 0.0 0.00 0.00 0.00 96 1010.7
20260906095258 13 308 0.0 0.0 0.00 0.00 0.00 96 1010.8
20260906095113 13 308 0.0 0.0 0.00 0.00 0.00 96 1010.7
20260906095049 13 308 0.0 0.0 0.00 0.00 0.00 96 1010.7
20260906095029 13 308 0.0 0.0 0.00 0.00 0.00 96 1010.9
20260906095004 13 308 0.0 0.0 0.00 0.00 0.00 96 1010.7
20260906095000 13 308 0.0 0.0 0.00 0.00 0.00 96 1010.7
20260906094748 13 308 0.0 0.0 0.00 0.00 0.00 96 1010.6
20260906094707 13 308 0.0 0.0 0.00 0.00 0.00 96 1010.6
20260906094556 13 308 0.0 0.0 0.00 0.00 0.00 96 1010.7
20260906094529 13 308 0.0 0.0 0.00 0.00 0.00 96 1010.9
20260906094347 13 308 0.0 0.0 0.00 0.00 0.00 96 1010.7
20260906094328 13 308 0.0 0.0 0.00 0.00 0.00 96 1010.7
20260906094245 13 308 0.0 0.0 0.00 0.00 0.00 96 1010.6
20260906094217 13 308 0.0 0.0 0.00 0.00 0.00 96 1010.7
20260906094058 13 308 0.0 0.0 0.00 0.00 0.00 96 1010.6
20260906094054 13 308 0.0 0.0 0.00 0.00 0.00 96 1010.7
20260906094029 13 308 0.0 0.0 0.00 0.00 0.00 96 1010.8
20260906093844 13 308 0.0 0.0 0.00 0.00 0.00 96 1010.6
20260906093757 13 308 0.0 0.0 0.00 0.00 0.00 96 1010.6
20260906093753 13 308 0.0 0.0 0.00 0.00 0.00 96 1010.7
20260906093608 13 308 0.0 0.0 0.00 0.00 0.00 96 1010.6
20260906093557 13 308 0.0 0.0 0.00 0.00 0.00 96 1010.6
20260906093553 13 308 0.0 0.0 0.00 0.00 0.00 96 1010.6
20260906093529 13 308 0.0 0.0 0.00 0.00 0.00 96 1010.8
20260906093342 13 308 0.0 0.0 0.00 0.00 0.00 96 1010.6
20260906093241 13 308 0.0 0.0 0.00 0.00 0.00 96 1010.5
20260906093159 13 308 0.0 0.0 0.00 0.00 0.00 96 1010.5
20260906093147 13 308 0.0 0.0 0.00 0.00 0.00 96 1010.5
20260906093043 13 308 0.0 0.0 0.00 0.00 0.00 96 1010.7
20260906092941 13 308 0.0 0.0 0.00 0.00 0.00 96 1010.5
20260906092852 13 308 0.0 0.0 0.00 0.00 0.00 96 1010.4
20260906092848 13 308 0.0 0.0 0.00 0.00 0.00 96 1010.4
20260906092639 13 308 0.0 0.0 0.00 0.00 0.00 96 1010.4
20260906092603 13 308 0.0 0.0 0.00 0.00 0.00 96 1010.4
20260906092538 13 308 0.0 0.0 0.00 0.00 0.00 96 1010.3
20260906092529 13 308 0.0 0.0 0.00 0.00 0.00 96 1010.5
20260906092438 13 308 0.0 0.0 0.00 0.00 0.00 96 1010.3
20260906092337 13 308 0.0 0.0 0.00 0.00 0.00 96 1010.3
20260906092237 13 308 0.0 0.0 0.00 0.00 0.00 96 1010.4
20260906092136 13 308 0.0 0.0 0.00 0.00 0.00 96 1010.3
20260906092102 13 308 0.0 0.0 0.00 0.00 0.00 96 1010.3
20260906092036 13 308 0.0 0.0 0.00 0.00 0.00 96 1010.3
20260906092029 13 308 0.0 0.0 0.00 0.00 0.00 96 1010.5
20260906091936 13 308 0.0 0.0 0.00 0.00 0.00 96 1010.3
20260906091836 13 308 0.0 0.0 0.00 0.00 0.00 96 1010.2
20260906091830 13 308 0.0 0.0 0.00 0.00 0.00 96 1010.3
20260906091824 13 308 0.0 0.0 0.00 0.00 0.00 96 1010.2
20260906091819 13 308 0.0 0.0 0.00 0.00 0.00 96 1010.2
20260906091533 13 308 0.0 0.0 0.00 0.00 0.00 96 1010.2
20260906091529 13 308 0.0 0.0 0.00 0.00 0.00 96 1010.4
20260906091432 13 308 0.0 0.0 0.00 0.00 0.00 96 1010.2
20260906091344 13 308 0.0 0.0 0.00 0.00 0.00 96 1010.2
20260906091340 13 308 0.0 0.0 0.00 0.00 0.00 96 1010.2
20260906091131 13 308 0.0 0.0 0.00 0.00 0.00 96 1010.1
20260906091101 13 308 0.0 0.0 0.00 0.00 0.00 96 1010.1
20260906091029 13 308 0.0 0.0 0.00 0.00 0.00 96 1010.3
20260906090928 13 308 0.0 0.0 0.00 0.00 0.00 96 1010.1
20260906090828 13 308 0.0 0.0 0.00 0.00 0.00 96 1010.1
20260906090741 14 308 0.0 0.0 0.00 0.00 0.00 96 1010.1
20260906090737 14 308 0.0 0.0 0.00 0.00 0.00 96 1010.1
20260906090559 14 308 0.0 0.0 0.00 0.00 0.00 96 1010.1
20260906090529 14 308 0.0 0.0 0.00 0.00 0.00 96 1010.4
20260906090527 14 308 0.0 0.0 0.00 0.00 0.00 96 1010.1
20260906090426 14 308 0.0 0.0 0.00 0.00 0.00 96 1010.1
20260906090238 14 308 0.0 0.0 0.00 0.00 0.00 96 1010.0
20260906090233 14 308 0.0 0.0 0.00 0.00 0.00 96 1010.1
20260906090057 14 308 0.0 0.0 0.00 0.00 0.00 96 1010.0
20260906090029 14 308 0.0 0.0 0.00 0.00 0.00 96 1010.3
20260906090024 14 308 0.0 0.0 0.00 0.00 0.00 96 1010.0
20260906085923 14 308 0.0 0.0 0.00 0.00 0.00 96 1010.0
20260906085835 14 308 0.0 0.0 0.00 0.00 0.00 96 1010.1
20260906085830 14 308 0.0 0.0 0.00 0.00 0.00 96 1010.0
20260906085621 14 308 0.0 0.0 0.00 0.00 0.00 96 1010.0
20260906085533 14 308 0.0 0.0 0.00 0.00 0.00 96 1010.0
20260906085529 14 308 0.0 0.0 0.00 0.00 0.00 96 1010.1
20260906085319 14 308 0.0 0.0 0.00 0.00 0.00 96 1010.0
20260906085219 14 308 0.0 0.0 0.00 0.00 0.00 96 1010.0
20260906085117 14 308 0.0 0.0 0.00 0.00 0.00 96 1010.0
20260906085057 14 308 0.0 0.0 0.00 0.00 0.00 96 1010.0
20260906085029 14 308 0.0 0.0 0.00 0.00 0.00 96 1010.4
20260906085017 14 308 0.0 0.0 0.00 0.00 0.00 96 1010.0
20260906084917 14 308 0.0 0.0 0.00 0.00 0.00 96 1010.1
20260906084817 14 308 0.0 0.0 0.00 0.00 0.00 96 1010.1
20260906084717 14 308 0.0 0.0 0.00 0.00 0.00 96 1010.0
20260906084630 14 308 0.0 0.0 0.00 0.00 0.00 96 1010.0
20260906084622 14 308 0.0 0.0 0.00 0.00 0.00 96 1010.1
20260906084528 14 308 0.0 0.0 0.00 0.00 0.00 96 1010.4
20260906084415 14 308 0.0 0.0 0.00 0.00 0.00 96 1010.1
20260906084315 14 308 0.0 0.0 0.00 0.00 0.00 96 1010.1
20260906084214 14 308 0.0 0.0 0.00 0.00 0.00 96 1010.1
20260906084128 14 308 0.0 0.0 0.00 0.00 0.00 96 1010.1
20260906084120 14 308 0.0 0.0 0.00 0.00 0.00 96 1010.1
20260906084029 14 308 0.0 0.0 0.00 0.00 0.00 96 1010.4
20260906083913 14 308 0.0 0.0 0.00 0.00 0.00 96 1010.1
20260906083810 14 308 0.0 0.0 0.00 0.00 0.00 96 1010.1
20260906083711 14 308 0.0 0.0 0.00 0.00 0.00 96 1010.1
20260906083611 14 308 0.0 0.0 0.00 0.00 0.00 96 1010.1
20260906083554 14 308 0.0 0.0 0.00 0.00 0.00 96 1010.1
20260906083529 14 308 0.0 0.0 0.00 0.00 0.00 96 1010.4
20260906083509 14 308 0.0 0.0 0.00 0.00 0.00 96 1010.1
20260906083409 14 308 0.0 0.0 0.00 0.00 0.00 96 1010.1
20260906083310 14 308 0.0 0.0 0.00 0.00 0.00 96 1010.1
20260906083209 14 308 0.0 0.0 0.00 0.00 0.00 96 1010.1
20260906083109 14 308 0.0 0.0 0.00 0.00 0.00 96 1010.1
20260906083057 14 308 0.0 0.0 0.00 0.00 0.00 96 1010.1
20260906083029 14 308 0.0 0.0 0.00 0.00 0.00 96 1010.3
20260906083019 14 308 0.0 0.0 0.00 0.00 0.00 95 1010.0
20260906083015 14 308 0.0 0.0 0.00 0.00 0.00 96 1010.1
20260906082818 14 308 0.0 0.0 0.00 0.00 0.00 95 1010.0
20260906082814 14 308 0.0 0.0 0.00 0.00 0.00 95 1010.0
20260906082604 14 308 0.0 0.0 0.00 0.00 0.00 95 1010.0
20260906082553 14 308 0.0 0.0 0.00 0.00 0.00 95 1009.9
20260906082529 14 308 0.0 0.0 0.00 0.00 0.00 95 1010.2
20260906082504 14 308 0.0 0.0 0.00 0.00 0.00 95 1010.0
20260906082404 14 308 0.0 0.0 0.00 0.00 0.00 95 1009.9
20260906082305 14 308 0.0 0.0 0.00 0.00 0.00 95 1009.9
20260906082203 14 308 0.0 0.0 0.00 0.00 0.00 95 1009.9
20260906082059 14 308 0.0 0.0 0.00 0.00 0.00 95 1010.2
20260906082053 14 308 0.0 0.0 0.00 0.00 0.00 95 1009.9
20260906082033 14 308 0.0 0.0 0.00 0.00 0.00 95 1010.0
20260906082029 14 308 0.0 0.0 0.00 0.00 0.00 95 1010.0
20260906082025 14 308 0.0 0.0 0.00 0.00 0.00 95 1010.0
20260906082019 14 308 0.0 0.0 0.00 0.00 0.00 95 1010.0
20260906081708 14 308 0.0 0.0 0.00 0.00 0.00 95 1009.9
20260906081659 14 308 0.0 0.0 0.00 0.00 0.00 95 1010.0
20260906081529 14 308 0.0 0.0 0.00 0.00 0.00 95 1010.2
20260906081457 14 308 0.0 0.0 0.00 0.00 0.00 95 1010.0
20260906081357 14 308 0.0 0.0 0.00 0.00 0.00 95 1010.0
20260906081256 14 308 0.0 0.0 0.00 0.00 0.00 95 1010.0
20260906081156 14 308 0.0 0.0 0.00 0.00 0.00 95 1010.0
20260906081115 14 308 0.0 0.0 0.00 0.00 0.00 95 1010.0
20260906081103 14 308 0.0 0.0 0.00 0.00 0.00 95 1010.0
20260906081028 14 308 0.0 0.0 0.00 0.00 0.00 95 1010.2
20260906080855 14 308 0.0 0.0 0.00 0.00 0.00 95 1010.0
20260906080755 14 308 0.0 0.0 0.00 0.00 0.00 95 1010.0
20260906080725 14 308 0.0 0.0 0.00 0.00 0.00 95 1010.0
20260906080721 14 308 0.0 0.0 0.00 0.00 0.00 95 1010.0
20260906080715 14 308 0.0 0.0 0.00 0.00 0.00 95 1010.0
20260906080559 14 308 0.0 0.0 0.00 0.00 0.00 95 1010.0
20260906080529 14 308 0.0 0.0 0.00 0.00 0.00 95 1010.2
20260906080351 14 308 0.0 0.0 0.00 0.00 0.00 95 1009.9
20260906080311 14 308 0.0 0.0 0.00 0.00 0.00 95 1010.0
20260906080250 14 308 0.0 0.0 0.00 0.00 0.00 95 1010.0
20260906080204 14 308 0.0 0.0 0.00 0.00 0.00 95 1009.9
20260906080155 14 308 0.0 0.0 0.00 0.00 0.00 95 1010.0
20260906080029 14 308 0.0 0.0 0.00 0.00 0.00 95 1010.1
20260906075949 14 308 0.0 0.0 0.00 0.00 0.00 95 1009.9
20260906075847 14 308 0.0 0.0 0.00 0.00 0.00 95 1009.9
20260906075746 14 308 0.0 0.0 0.00 0.00 0.00 95 1009.9
20260906075645 14 308 0.0 0.0 0.00 0.00 0.00 95 1009.9
20260906075545 14 308 0.0 0.0 0.00 0.00 0.00 95 1009.9
20260906075529 14 308 0.0 0.0 0.00 0.00 0.00 95 1010.2
20260906075444 14 308 0.0 0.0 0.00 0.00 0.00 95 1010.0
20260906075344 14 308 0.0 0.0 0.00 0.00 0.00 95 1009.9
20260906075244 14 308 0.0 0.0 0.00 0.00 0.00 95 1010.0
20260906075143 14 308 0.0 0.0 0.00 0.00 0.00 95 1010.0
20260906075102 14 308 0.0 0.0 0.00 0.00 0.00 95 1009.9
20260906075052 14 308 0.0 0.0 0.00 0.00 0.00 95 1010.0
20260906075029 14 308 0.0 0.0 0.00 0.00 0.00 95 1010.1
20260906074855 14 308 0.0 0.0 0.00 0.00 0.00 95 1010.0
20260906074851 14 308 0.0 0.0 0.00 0.00 0.00 95 1010.0
20260906074641 14 308 0.0 0.0 0.00 0.00 0.00 95 1010.0
20260906074544 14 308 0.0 0.0 0.00 0.00 0.00 95 1010.2
20260906074541 14 308 0.0 0.0 0.00 0.00 0.00 95 1010.0
20260906074439 14 308 0.0 0.0 0.00 0.00 0.00 95 1010.0
20260906074338 14 308 0.0 0.0 0.00 0.00 0.00 95 1010.0
20260906074238 14 308 0.0 0.0 0.00 0.00 0.00 95 1010.0
20260906074138 14 308 0.0 0.0 0.00 0.00 0.00 95 1009.9
20260906074037 14 308 0.0 0.0 0.00 0.00 0.00 95 1010.0
20260906074029 14 308 0.0 0.0 0.00 0.00 0.00 95 1010.2
20260906073936 14 308 0.0 0.0 0.00 0.00 0.00 95 1010.0
20260906073836 14 308 0.0 0.0 0.00 0.00 0.00 95 1010.0
20260906073736 14 308 0.0 0.0 0.00 0.00 0.00 95 1010.0
20260906073636 14 308 0.0 0.0 0.00 0.00 0.00 95 1010.0
20260906073536 14 308 0.0 0.0 0.00 0.00 0.00 95 1010.0
20260906073529 14 308 0.0 0.0 0.00 0.00 0.00 95 1010.2
20260906073436 14 308 0.0 0.0 0.00 0.00 0.00 95 1010.0
20260906073334 14 308 0.0 0.0 0.00 0.00 0.00 95 1009.9
20260906073248 14 308 0.0 0.0 0.00 0.00 0.00 95 1010.0
20260906073244 14 308 0.0 0.0 0.00 0.00 0.00 95 1009.9
20260906073033 14 308 0.0 0.0 0.00 0.00 0.00 95 1010.0
20260906073029 14 308 0.0 0.0 0.00 0.00 0.00 95 1010.2
20260906072932 14 308 0.0 0.0 0.00 0.00 0.00 95 1010.0
20260906072832 14 308 0.0 0.0 0.00 0.00 0.00 95 1009.9
20260906072731 14 308 0.0 0.0 0.00 0.00 0.00 95 1010.0
20260906072629 14 308 0.0 0.0 0.00 0.00 0.00 95 1010.0
20260906072529 14 308 0.0 0.0 0.00 0.00 0.00 95 1010.2
20260906072428 14 308 0.0 0.0 0.00 0.00 0.00 95 1010.0
20260906072328 14 308 0.0 0.0 0.00 0.00 0.00 95 1010.0
20260906072240 14 308 0.0 0.0 0.00 0.00 0.00 95 1010.0
20260906072236 14 308 0.0 0.0 0.00 0.00 0.00 95 1010.0
20260906072029 14 308 0.0 0.0 0.00 0.00 0.00 95 1010.1
20260906072026 14 308 0.0 0.0 0.00 0.00 0.00 95 1009.9
20260906071926 14 308 0.0 0.0 0.00 0.00 0.00 95 1009.9
20260906071826 14 308 0.0 0.0 0.00 0.00 0.00 95 1009.9
20260906071757 14 308 0.0 0.0 0.00 0.00 0.00 95 1009.9
20260906071725 14 308 0.0 0.0 0.00 0.00 0.00 95 1009.9
20260906071644 14 308 0.0 0.0 0.00 0.00 0.00 95 1009.9
20260906071528 15 308 0.0 0.0 0.00 0.00 0.00 95 1010.1
20260906071524 14 308 0.0 0.0 0.00 0.00 0.00 95 1009.9
20260906071424 14 308 0.0 0.0 0.00 0.00 0.00 95 1009.9
20260906071324 14 308 0.0 0.0 0.00 0.00 0.00 95 1009.9
20260906071223 14 308 0.0 0.0 0.00 0.00 0.00 95 1009.9
20260906071123 14 308 0.0 0.0 0.00 0.00 0.00 95 1009.9
20260906071058 15 308 0.0 0.0 0.00 0.00 0.00 95 1010.1
20260906071042 15 308 0.0 0.0 0.00 0.00 0.00 95 1009.9
20260906071031 15 308 0.0 0.0 0.00 0.00 0.00 95 1009.9
20260906070821 15 308 0.0 0.0 0.00 0.00 0.00 95 1009.9
20260906070721 15 308 0.0 0.0 0.00 0.00 0.00 95 1009.8
20260906070647 15 308 0.0 0.0 0.00 0.00 0.00 95 1009.9
20260906070529 15 308 0.0 0.0 0.00 0.00 0.00 95 1010.1
20260906070332 15 308 0.0 0.0 0.00 0.00 0.00 95 1009.9
20260906070328 15 308 0.0 0.0 0.00 0.00 0.00 95 1009.9
20260906070133 15 308 0.0 0.0 0.00 0.00 0.00 95 1009.9
20260906070124 15 308 0.0 0.0 0.00 0.00 0.00 95 1009.9
20260906070029 15 308 0.0 0.0 0.00 0.00 0.00 95 1010.1
20260906065930 15 308 0.0 0.0 0.00 0.00 0.00 95 1009.8
20260906065925 15 308 0.0 0.0 0.00 0.00 0.00 95 1009.9
20260906065716 15 308 0.0 0.0 0.00 0.00 0.00 95 1009.8
20260906065616 15 308 0.0 0.0 0.00 0.00 0.00 95 1009.8
20260906065514 15 308 0.0 0.0 0.00 0.00 0.00 95 1009.9
20260906065414 15 308 0.0 0.0 0.00 0.00 0.00 95 1009.9
20260906065400 15 308 0.0 0.0 0.00 0.00 0.00 95 1010.0
20260906065213 15 308 0.0 0.0 0.00 0.00 0.00 95 1009.9
20260906065138 15 308 0.0 0.0 0.00 0.00 0.00 95 1010.0
20260906065029 15 308 0.0 0.0 0.00 0.00 0.00 95 1010.2
20260906065012 15 308 0.0 0.0 0.00 0.00 0.00 95 1010.0
20260906064924 15 308 0.0 0.0 0.00 0.00 0.00 95 1010.0
20260906064920 15 308 0.0 0.0 0.00 0.00 0.00 95 1010.0
20260906064711 15 308 0.0 0.0 0.00 0.00 0.00 95 1010.0
20260906064610 15 308 0.0 0.0 0.00 0.00 0.00 95 1010.0
20260906064529 15 308 0.0 0.0 0.00 0.00 0.00 95 1010.1
20260906064510 15 308 0.0 0.0 0.00 0.00 0.00 95 1010.0
20260906064409 15 308 0.0 0.0 0.00 0.00 0.00 95 1009.9
20260906064309 15 308 0.0 0.0 0.00 0.00 0.00 95 1010.0
20260906064209 15 308 0.0 0.0 0.00 0.00 0.00 95 1010.0
20260906064108 15 308 0.0 0.0 0.00 0.00 0.00 95 1009.9
20260906064044 15 308 0.0 0.0 0.00 0.00 0.00 95 1010.1
20260906064008 15 308 0.0 0.0 0.00 0.00 0.00 95 1009.9
20260906063908 15 308 0.0 0.0 0.00 0.00 0.00 95 1009.9
20260906063807 15 308 0.0 0.0 0.00 0.00 0.00 95 1009.9
20260906063707 15 308 0.0 0.0 0.00 0.00 0.00 95 1009.9
20260906063607 15 308 0.0 0.0 0.00 0.00 0.00 95 1009.9
20260906063544 15 308 0.0 0.0 0.00 0.00 0.00 95 1010.1
20260906063521 15 308 0.0 0.0 0.00 0.00 0.00 95 1009.9
20260906063516 15 308 0.0 0.0 0.00 0.00 0.00 95 1009.9
20260906063306 15 308 0.0 0.0 0.00 0.00 0.00 95 1009.9
20260906063206 15 308 0.0 0.0 0.00 0.00 0.00 95 1009.9
20260906063105 15 308 0.0 0.0 0.00 0.00 0.00 95 1009.9
20260906063029 15 308 0.0 0.0 0.00 0.00 0.00 95 1010.1
20260906063005 15 308 0.0 0.0 0.00 0.00 0.00 95 1009.9
20260906062905 15 308 0.0 0.0 0.00 0.00 0.00 95 1009.9
20260906062804 15 308 0.0 0.0 0.00 0.00 0.00 95 1009.9
20260906062704 15 308 0.0 0.0 0.00 0.00 0.00 95 1010.0
20260906062603 15 308 0.0 0.0 0.00 0.00 0.00 95 1010.0
20260906062529 15 308 0.0 0.0 0.00 0.00 0.00 95 1010.1
20260906062519 15 308 0.0 0.0 0.00 0.00 0.00 95 1010.0
20260906062503 15 308 0.0 0.0 0.00 0.00 0.00 95 1009.9
20260906062402 15 308 0.0 0.0 0.00 0.00 0.00 95 1010.0
20260906062301 15 308 0.0 0.0 0.00 0.00 0.00 95 1009.9
20260906062202 15 308 0.0 0.0 0.00 0.00 0.00 95 1010.0
20260906062121 15 308 0.0 0.0 0.00 0.00 0.00 95 1009.9
20260906062107 15 308 0.0 0.0 0.00 0.00 0.00 95 1010.0
20260906062029 15 308 0.0 0.0 0.00 0.00 0.00 95 1010.1
20260906061900 15 308 0.0 0.0 0.00 0.00 0.00 95 1010.0
20260906061800 15 308 0.0 0.0 0.00 0.00 0.00 95 1010.0
20260906061713 15 308 0.0 0.0 0.00 0.00 0.00 95 1010.0
20260906061708 15 308 0.0 0.0 0.00 0.00 0.00 95 1010.0
20260906061529 15 308 0.0 0.0 0.00 0.00 0.00 95 1010.2
20260906061519 15 308 0.0 0.0 0.00 0.00 0.00 95 1010.0
20260906061459 15 308 0.0 0.0 0.00 0.00 0.00 95 1010.0
20260906061359 15 308 0.0 0.0 0.00 0.00 0.00 95 1010.0
20260906061257 15 308 0.0 0.0 0.00 0.00 0.00 95 1010.0
20260906061155 15 308 0.0 0.0 0.00 0.00 0.00 95 1010.0
20260906061055 15 308 0.0 0.0 0.00 0.00 0.00 95 1010.0
20260906061044 15 308 0.0 0.0 0.00 0.00 0.00 95 1010.3
20260906061018 15 308 0.0 0.0 0.00 0.00 0.00 95 1010.0
20260906060954 15 308 0.0 0.0 0.00 0.00 0.00 95 1010.1
20260906060854 15 308 0.0 0.0 0.00 0.00 0.00 94 1010.1
20260906060755 15 308 0.0 0.0 0.00 0.00 0.00 94 1010.2
20260906060655 15 308 0.0 0.0 0.00 0.00 0.00 94 1010.1
20260906060555 15 308 0.0 0.0 0.00 0.00 0.00 94 1010.2
20260906060544 15 308 0.0 0.0 0.00 0.00 0.00 94 1010.4
20260906060516 15 308 0.0 0.0 0.00 0.00 0.00 94 1010.2
20260906060454 15 308 0.0 0.0 0.00 0.00 0.00 94 1010.2
20260906060353 15 308 0.0 0.0 0.00 0.00 0.00 94 1010.1
20260906060253 15 308 0.0 0.0 0.00 0.00 0.00 94 1010.2
20260906060238 15 308 0.0 0.0 0.00 0.00 0.00 94 1010.2
20260906060153 15 308 0.0 0.0 0.00 0.00 0.00 94 1010.2
20260906060122 15 308 0.0 0.0 0.00 0.00 0.00 94 1010.2
20260906060029 15 308 0.0 0.0 0.00 0.00 0.00 94 1010.4
20260906055952 15 308 0.0 0.0 0.00 0.00 0.00 94 1010.2
20260906055850 15 308 0.0 0.0 0.00 0.00 0.00 94 1010.2
20260906055750 15 308 0.0 0.0 0.00 0.00 0.00 95 1010.2
20260906055716 15 308 0.0 0.0 0.00 0.00 0.00 95 1010.2
20260906055555 15 308 0.0 0.0 0.00 0.00 0.00 95 1010.2
20260906055529 15 308 0.0 0.0 0.00 0.00 0.00 95 1010.4
20260906055348 15 308 0.0 0.0 0.00 0.00 0.00 95 1010.2
20260906055248 15 308 0.0 0.0 0.00 0.00 0.00 95 1010.2
20260906055147 15 308 0.0 0.0 0.00 0.00 0.00 95 1010.2
20260906055047 15 308 0.0 0.0 0.00 0.00 0.00 95 1010.2
20260906055028 15 308 0.0 0.0 0.00 0.00 0.00 95 1010.4
20260906055012 15 308 0.0 0.0 0.00 0.00 0.00 95 1010.2
20260906054946 15 308 0.0 0.0 0.00 0.00 0.00 95 1010.2
20260906054846 15 308 0.0 0.0 0.00 0.00 0.00 95 1010.2
20260906054746 15 308 0.0 0.0 0.00 0.00 0.00 95 1010.2
20260906054735 15 308 0.0 0.0 0.00 0.00 0.00 95 1010.2
20260906054645 15 308 0.0 0.0 0.00 0.00 0.00 95 1010.2
20260906054620 15 308 0.0 0.0 0.00 0.00 0.00 95 1010.2
20260906054529 15 308 0.0 0.0 0.00 0.00 0.00 95 1010.5
20260906054446 15 308 0.0 0.0 0.00 0.00 0.00 95 1010.3
20260906054346 15 308 0.0 0.0 0.00 0.00 0.00 95 1010.3
20260906054245 15 308 0.0 0.0 0.00 0.00 0.00 95 1010.2
20260906054144 15 308 0.0 0.0 0.00 0.00 0.00 95 1010.3
20260906054103 15 308 0.0 0.0 0.00 0.00 0.00 95 1010.3
20260906054058 15 308 0.0 0.0 0.00 0.00 0.00 94 1010.3
20260906054050 15 308 0.0 0.0 0.00 0.00 0.00 95 1010.3
20260906054029 15 308 0.0 0.0 0.00 0.00 0.00 95 1010.5
20260906053843 15 308 0.0 0.0 0.00 0.00 0.00 95 1010.3
20260906053743 15 308 0.0 0.0 0.00 0.00 0.00 95 1010.3
20260906053642 15 308 0.0 0.0 0.00 0.00 0.00 94 1010.4
20260906053629 15 308 0.0 0.0 0.00 0.00 0.00 94 1010.6
20260906053542 15 308 0.0 0.0 0.00 0.00 0.00 94 1010.3
20260906053510 15 308 0.0 0.0 0.00 0.00 0.00 94 1010.3
20260906053442 15 308 0.0 0.0 0.00 0.00 0.00 94 1010.4
20260906053341 15 308 0.0 0.0 0.00 0.00 0.00 94 1010.4
20260906053240 15 308 0.0 0.0 0.00 0.00 0.00 94 1010.5
20260906053140 15 308 0.0 0.0 0.00 0.00 0.00 94 1010.5
20260906053029 15 308 0.0 0.0 0.00 0.00 0.00 94 1010.7
20260906053009 15 308 0.0 0.0 0.00 0.00 0.00 94 1010.5
20260906052958 15 308 0.0 0.0 0.00 0.00 0.00 94 1010.5
20260906052845 15 308 0.0 0.0 0.00 0.00 0.00 94 1010.4
20260906052635 15 308 0.0 0.0 0.00 0.00 0.00 94 1010.5
20260906052529 15 308 0.0 0.0 0.00 0.00 0.00 94 1010.7
20260906052507 15 308 0.0 0.0 0.00 0.00 0.00 94 1010.4
20260906052435 15 308 0.0 0.0 0.00 0.00 0.00 94 1010.5
20260906052335 15 308 0.0 0.0 0.00 0.00 0.00 94 1010.4
20260906052252 15 308 0.0 0.0 0.00 0.00 0.00 94 1010.4
20260906052248 15 308 0.0 0.0 0.00 0.00 0.00 94 1010.4
20260906052242 15 308 0.0 0.0 0.00 0.00 0.00 94 1010.4
20260906052114 15 308 0.0 0.0 0.00 0.00 0.00 94 1010.4
20260906052029 15 308 0.0 0.0 0.00 0.00 0.00 94 1010.5
20260906051934 15 308 0.0 0.0 0.00 0.00 0.00 94 1010.3
20260906051858 15 308 0.0 0.0 0.00 0.00 0.00 94 1010.4
20260906051853 15 308 0.0 0.0 0.00 0.00 0.00 94 1010.4
20260906051740 15 308 0.0 0.0 0.00 0.00 0.00 94 1010.4
20260906051613 15 308 0.0 0.0 0.00 0.00 0.00 94 1010.4
20260906051529 15 308 0.0 0.0 0.00 0.00 0.00 94 1010.6
20260906051430 15 308 0.0 0.0 0.00 0.00 0.00 94 1010.4
20260906051329 15 308 0.0 0.0 0.00 0.00 0.00 94 1010.4
20260906051229 15 308 0.0 0.0 0.00 0.00 0.00 94 1010.4
20260906051129 15 308 0.0 0.0 0.00 0.00 0.00 94 1010.4
20260906051029 15 308 0.0 0.0 0.00 0.00 0.00 94 1010.6
20260906051005 15 308 0.0 0.0 0.00 0.00 0.00 94 1010.4
20260906050928 15 308 0.0 0.0 0.00 0.00 0.00 94 1010.4
20260906050827 15 308 0.0 0.0 0.00 0.00 0.00 94 1010.4
20260906050741 15 308 0.0 0.0 0.00 0.00 0.00 94 1010.4
20260906050736 15 308 0.0 0.0 0.00 0.00 0.00 94 1010.4
20260906050529 15 308 0.0 0.0 0.00 0.00 0.00 94 1010.6
20260906050503 15 308 0.0 0.0 0.00 0.00 0.00 94 1010.4
20260906050439 15 308 0.0 0.0 0.00 0.00 0.00 94 1010.4
20260906050434 15 308 0.0 0.0 0.00 0.00 0.00 94 1010.4
20260906050225 15 308 0.0 0.0 0.00 0.00 0.00 94 1010.4
20260906050124 15 308 0.0 0.0 0.00 0.00 0.00 94 1010.4
20260906050044 15 308 0.0 0.0 0.00 0.00 0.00 94 1010.6
20260906050031 15 308 0.0 0.0 0.00 0.00 0.00 94 1010.4
20260906045823 15 308 0.0 0.0 0.00 0.00 0.00 94 1010.4
20260906045740 15 308 0.0 0.0 0.00 0.00 0.00 94 1010.3
20260906045731 15 308 0.0 0.0 0.00 0.00 0.00 94 1010.3
20260906045727 15 308 0.0 0.0 0.00 0.00 0.00 94 1010.4
20260906045718 15 308 0.0 0.0 0.00 0.00 0.00 94 1010.3
20260906045529 15 308 0.0 0.0 0.00 0.00 0.00 94 1010.5
20260906045422 15 308 0.0 0.0 0.00 0.00 0.00 94 1010.3
20260906045334 15 308 0.0 0.0 0.00 0.00 0.00 94 1010.3
20260906045330 15 308 0.0 0.0 0.00 0.00 0.00 94 1010.3
20260906045121 15 308 0.0 0.0 0.00 0.00 0.00 94 1010.4
20260906045029 15 308 0.0 0.0 0.00 0.00 0.00 94 1010.6
20260906045020 15 308 0.0 0.0 0.00 0.00 0.00 94 1010.4
20260906045002 15 308 0.0 0.0 0.00 0.00 0.00 94 1010.4
20260906044920 15 308 0.0 0.0 0.00 0.00 0.00 94 1010.4
20260906044819 15 308 0.0 0.0 0.00 0.00 0.00 94 1010.3
20260906044719 15 308 0.0 0.0 0.00 0.00 0.00 94 1010.3
20260906044619 15 308 0.0 0.0 0.00 0.00 0.00 94 1010.3
20260906044529 15 308 0.0 0.0 0.00 0.00 0.00 94 1010.5
20260906044518 15 308 0.0 0.0 0.00 0.00 0.00 94 1010.3
20260906044501 15 308 0.0 0.0 0.00 0.00 0.00 94 1010.3
20260906044419 15 308 0.0 0.0 0.00 0.00 0.00 94 1010.3
20260906044318 15 308 0.0 0.0 0.00 0.00 0.00 94 1010.4
20260906044230 15 308 0.0 0.0 0.00 0.00 0.00 94 1010.4
20260906044226 15 308 0.0 0.0 0.00 0.00 0.00 94 1010.4
20260906044029 15 308 0.0 0.0 0.00 0.00 0.00 94 1010.6
20260906044016 15 308 0.0 0.0 0.00 0.00 0.00 94 1010.4
20260906044000 15 308 0.0 0.0 0.00 0.00 0.00 94 1010.4
20260906043916 15 308 0.0 0.0 0.00 0.00 0.00 94 1010.4
20260906043816 15 308 0.0 0.0 0.00 0.00 0.00 94 1010.4
20260906043715 15 308 0.0 0.0 0.00 0.00 0.00 93 1010.4
20260906043615 15 308 0.0 0.0 0.00 0.00 0.00 93 1010.4
20260906043529 16 308 0.0 0.0 0.00 0.00 0.00 93 1010.6
20260906043514 15 308 0.0 0.0 0.00 0.00 0.00 93 1010.4
20260906043500 15 308 0.0 0.0 0.00 0.00 0.00 93 1010.4
20260906043415 15 308 0.0 0.0 0.00 0.00 0.00 94 1010.4
20260906043315 15 308 0.0 0.0 0.00 0.00 0.00 94 1010.4
20260906043234 16 308 0.0 0.0 0.00 0.00 0.00 94 1010.4
20260906043229 16 308 0.0 0.0 0.00 0.00 0.00 94 1010.3
20260906043225 16 308 0.0 0.0 0.00 0.00 0.00 94 1010.4
20260906043216 16 308 0.0 0.0 0.00 0.00 0.00 94 1010.4
20260906043029 16 308 0.0 0.0 0.00 0.00 0.00 94 1010.5
20260906042913 16 308 0.0 0.0 0.00 0.00 0.00 94 1010.3
20260906042813 16 308 0.0 0.0 0.00 0.00 0.00 94 1010.4
20260906042712 16 308 0.0 0.0 0.00 0.00 0.00 94 1010.3
20260906042612 16 308 0.0 0.0 0.00 0.00 0.00 94 1010.3
20260906042529 16 308 0.0 0.0 0.00 0.00 0.00 94 1010.5
20260906042511 16 308 0.0 0.0 0.00 0.00 0.00 94 1010.3
20260906042459 16 308 0.0 0.0 0.00 0.00 0.00 94 1010.3
20260906042410 16 308 0.0 0.0 0.00 0.00 0.00 93 1010.3
20260906042310 16 308 0.0 0.0 0.00 0.00 0.00 93 1010.3
20260906042208 16 308 0.0 0.0 0.00 0.00 0.00 93 1010.3
20260906042109 16 308 0.0 0.0 0.00 0.00 0.00 93 1010.3
20260906042029 16 308 0.0 0.0 0.00 0.00 0.00 93 1010.5
20260906042008 16 308 0.0 0.0 0.00 0.00 0.00 93 1010.3
20260906041958 16 308 0.0 0.0 0.00 0.00 0.00 93 1010.3
20260906041907 16 308 0.0 0.0 0.00 0.00 0.00 93 1010.3
20260906041807 16 308 0.0 0.0 0.00 0.00 0.00 93 1010.3
20260906041717 16 308 0.0 0.0 0.00 0.00 0.00 93 1010.3
20260906041707 16 308 0.0 0.0 0.00 0.00 0.00 93 1010.3
20260906041613 16 308 0.0 0.0 0.00 0.00 0.00 93 1010.3
20260906041604 16 308 0.0 0.0 0.00 0.00 0.00 93 1010.3
20260906041544 16 308 0.0 0.0 0.00 0.00 0.00 93 1010.5
20260906041406 16 308 0.0 0.0 0.00 0.00 0.00 93 1010.3
20260906041327 16 308 0.0 0.0 0.00 0.00 0.00 93 1010.3
20260906041214 16 308 0.0 0.0 0.00 0.00 0.00 93 1010.3
20260906041029 16 308 0.0 0.0 0.00 0.00 0.00 93 1010.5
20260906041003 16 308 0.0 0.0 0.00 0.00 0.00 93 1010.3
20260906040956 16 308 0.0 0.0 0.00 0.00 0.00 93 1010.3
20260906040904 16 308 0.0 0.0 0.00 0.00 0.00 93 1010.3
20260906040802 16 308 0.0 0.0 0.00 0.00 0.00 93 1010.3
20260906040701 16 308 0.0 0.0 0.00 0.00 0.00 93 1010.3
20260906040601 16 308 0.0 0.0 0.00 0.00 0.00 93 1010.2
20260906040529 16 308 0.0 0.0 0.00 0.00 0.00 93 1010.4
20260906040457 16 308 0.0 0.0 0.00 0.00 0.00 93 1010.2
20260906040413 16 308 0.0 0.0 0.00 0.00 0.00 93 1010.2
20260906040408 16 308 0.0 0.0 0.00 0.00 0.00 93 1010.2
20260906040159 16 308 0.0 0.0 0.00 0.00 0.00 93 1010.2
20260906040059 16 308 0.0 0.0 0.00 0.00 0.00 93 1010.2
20260906040029 16 308 0.0 0.0 0.00 0.00 0.00 93 1010.4
20260906035955 16 308 0.0 0.0 0.00 0.00 0.00 93 1010.2
20260906035857 16 308 0.0 0.0 0.00 0.00 0.00 93 1010.2
20260906035757 16 308 0.0 0.0 0.00 0.00 0.00 93 1010.2
20260906035656 16 308 0.0 0.0 0.00 0.00 0.00 93 1010.2
20260906035556 16 308 0.0 0.0 0.00 0.00 0.00 93 1010.2
20260906035529 16 308 0.0 0.0 0.00 0.00 0.00 93 1010.4
20260906035457 16 308 0.0 0.0 0.00 0.00 0.00 93 1010.2
20260906035355 16 308 0.0 0.0 0.00 0.00 0.00 93 1010.2
20260906035255 16 308 0.0 0.0 0.00 0.00 0.00 93 1010.2
20260906035154 16 308 0.0 0.0 0.00 0.00 0.00 93 1010.1
20260906035054 16 308 0.0 0.0 0.00 0.00 0.00 93 1010.1
20260906035029 16 308 0.0 0.0 0.00 0.00 0.00 93 1010.3
20260906034954 16 308 0.0 0.0 0.00 0.00 0.00 93 1010.1
20260906034853 16 308 0.0 0.0 0.00 0.00 0.00 93 1010.1
20260906034806 16 308 0.0 0.0 0.00 0.00 0.00 93 1010.1
20260906034802 16 308 0.0 0.0 0.00 0.00 0.00 93 1010.1
20260906034552 16 308 0.0 0.0 0.00 0.00 0.00 93 1010.0
20260906034529 16 308 0.0 0.0 0.00 0.00 0.00 93 1010.2
20260906034452 16 308 0.0 0.0 0.00 0.00 0.00 93 1010.0
20260906034413 16 308 0.0 0.0 0.00 0.00 0.00 93 1010.0
20260906034300 16 308 0.0 0.0 0.00 0.00 0.00 93 1010.0
20260906034125 16 308 0.0 0.0 0.00 0.00 0.00 92 1010.0
20260906034116 16 308 0.0 0.0 0.00 0.00 0.00 92 1010.0
20260906034029 16 308 0.0 0.0 0.00 0.00 0.00 92 1010.2
20260906033857 16 308 0.0 0.0 0.00 0.00 0.00 92 1010.0
20260906033648 16 308 0.0 0.0 0.00 0.00 0.00 92 1010.1
20260906033547 16 308 0.0 0.0 0.00 0.00 0.00 92 1010.0
20260906033544 16 308 0.0 0.0 0.00 0.00 0.00 92 1010.2
20260906033447 16 308 0.0 0.0 0.00 0.00 0.00 92 1010.0
20260906033348 16 308 0.0 0.0 0.00 0.00 0.00 92 1010.1
20260906033309 16 308 0.0 0.0 0.00 0.00 0.00 92 1010.0
20260906033156 16 308 0.0 0.0 0.00 0.00 0.00 93 1010.0
20260906033029 16 308 0.0 0.0 0.00 0.00 0.00 93 1010.2
20260906032947 16 308 0.0 0.0 0.00 0.00 0.00 93 1010.0
20260906032846 16 308 0.0 0.0 0.00 0.00 0.00 92 1010.0
20260906032746 16 308 0.0 0.0 0.00 0.00 0.00 92 1010.1
20260906032647 16 308 0.0 0.0 0.00 0.00 0.00 92 1010.1
20260906032547 16 308 0.0 0.0 0.00 0.00 0.00 92 1010.1
20260906032544 16 308 0.0 0.0 0.00 0.00 0.00 92 1010.3
20260906032445 16 308 0.0 0.0 0.00 0.00 0.00 92 1010.1
20260906032345 16 308 0.0 0.0 0.00 0.00 0.00 92 1010.1
20260906032244 16 308 0.0 0.0 0.00 0.00 0.00 92 1010.0
20260906032144 16 308 0.0 0.0 0.00 0.00 0.00 92 1010.0
20260906032045 16 308 0.0 0.0 0.00 0.00 0.00 92 1010.0
20260906032029 16 308 0.0 0.0 0.00 0.00 0.00 92 1010.2
20260906032017 16 308 0.0 0.0 0.00 0.00 0.00 92 1010.0
20260906032013 16 308 0.0 0.0 0.00 0.00 0.00 92 1009.9
20260906032002 16 308 0.0 0.0 0.00 0.00 0.00 92 1010.0
20260906031643 16 308 0.0 0.0 0.00 0.00 0.00 92 1010.0
20260906031544 16 308 0.0 0.0 0.00 0.00 0.00 92 1010.2
20260906031442 16 308 0.0 0.0 0.00 0.00 0.00 92 1010.0
20260906031409 16 308 0.0 0.0 0.00 0.00 0.00 92 1010.0
20260906031405 16 308 0.0 0.0 0.00 0.00 0.00 92 1010.0
20260906031359 16 308 0.0 0.0 0.00 0.00 0.00 92 1010.0
20260906031055 16 308 0.0 0.0 0.00 0.00 0.00 92 1010.0
20260906031045 16 308 0.0 0.0 0.00 0.00 0.00 92 1010.0
20260906031029 16 308 0.0 0.0 0.00 0.00 0.00 92 1010.2
20260906030840 16 308 0.0 0.0 0.00 0.00 0.00 92 1010.0
20260906030739 16 308 0.0 0.0 0.00 0.00 0.00 92 1010.0
20260906030638 16 308 0.0 0.0 0.00 0.00 0.00 92 1010.0
20260906030553 16 308 0.0 0.0 0.00 0.00 0.00 92 1010.0
20260906030544 16 308 0.0 0.0 0.00 0.00 0.00 92 1010.0
20260906030529 16 308 0.0 0.0 0.00 0.00 0.00 92 1010.2
20260906030338 16 308 0.0 0.0 0.00 0.00 0.00 92 1010.0
20260906030236 16 308 0.0 0.0 0.00 0.00 0.00 92 1009.9
20260906030136 16 308 0.0 0.0 0.00 0.00 0.00 92 1009.9
20260906030044 16 308 0.0 0.0 0.00 0.00 0.00 92 1010.1
20260906030036 16 308 0.0 0.0 0.00 0.00 0.00 92 1009.9
20260906025954 16 308 0.0 0.0 0.00 0.00 0.00 92 1009.9
20260906025943 16 308 0.0 0.0 0.00 0.00 0.00 92 1009.9
20260906025731 16 308 0.0 0.0 0.00 0.00 0.00 91 1009.9
20260906025631 16 308 0.0 0.0 0.00 0.00 0.00 91 1009.9
20260906025545 16 308 0.0 0.0 0.00 0.00 0.00 91 1009.9
20260906025537 16 308 0.0 0.0 0.00 0.00 0.00 91 1009.8
20260906025529 17 308 0.0 0.0 0.00 0.00 0.00 91 1010.0
20260906025330 17 308 0.0 0.0 0.00 0.00 0.00 91 1009.8
20260906025316 17 308 0.0 0.0 0.00 0.00 0.00 91 1009.8
20260906025313 17 308 0.0 0.0 0.00 0.00 0.00 91 1009.8
20260906025307 17 308 0.0 0.0 0.00 0.00 0.00 91 1009.8
20260906025302 17 308 0.0 0.0 0.00 0.00 0.00 91 1009.8
20260906025035 17 308 0.0 0.0 0.00 0.00 0.00 91 1009.8
20260906025029 17 308 0.0 0.0 0.00 0.00 0.00 91 1010.0
20260906024829 17 308 0.0 0.0 0.00 0.00 0.00 91 1009.8
20260906024729 17 308 0.0 0.0 0.00 0.00 0.00 91 1009.8
20260906024642 17 308 0.0 0.0 0.00 0.00 0.00 91 1009.8
20260906024637 17 308 0.0 0.0 0.00 0.00 0.00 91 1009.8
20260906024529 17 308 0.0 0.0 0.00 0.00 0.00 91 1010.1
20260906024426 17 308 0.0 0.0 0.00 0.00 0.00 91 1009.9
20260906024326 17 308 0.0 0.0 0.00 0.00 0.00 91 1009.9
20260906024226 17 308 0.0 0.0 0.00 0.00 0.00 91 1009.9
20260906024125 17 308 0.0 0.0 0.00 0.00 0.00 91 1009.9
20260906024029 17 308 0.0 0.0 0.00 0.00 0.00 91 1010.1
20260906024025 17 308 0.0 0.0 0.00 0.00 0.00 91 1009.9
20260906023924 17 308 0.0 0.0 0.00 0.00 0.00 91 1009.9
20260906023824 17 308 0.0 0.0 0.00 0.00 0.00 91 1009.8
20260906023724 17 308 0.0 0.0 0.00 0.00 0.00 91 1009.9
20260906023624 17 308 0.0 0.0 0.00 0.00 0.00 91 1009.8
20260906023530 17 308 0.0 0.0 0.00 0.00 0.00 91 1009.9
20260906023523 17 308 0.0 0.0 0.00 0.00 0.00 91 1009.8
20260906023423 17 308 0.0 0.0 0.00 0.00 0.00 91 1009.7
20260906023323 17 308 0.0 0.0 0.00 0.00 0.00 91 1009.8
20260906023222 17 308 0.0 0.0 0.00 0.00 0.00 91 1009.8
20260906023122 17 308 0.0 0.0 0.00 0.00 0.00 91 1009.7
20260906023029 17 308 0.0 0.0 0.00 0.00 0.00 90 1010.0
20260906023019 17 308 0.0 0.0 0.00 0.00 0.00 90 1009.8
20260906022919 17 308 0.0 0.0 0.00 0.00 0.00 90 1009.8
20260906022819 17 308 0.0 0.0 0.00 0.00 0.00 90 1009.8
20260906022718 17 308 0.0 0.0 0.00 0.00 0.00 90 1009.8
20260906022644 17 308 0.0 0.0 0.00 0.00 0.00 90 1009.8
20260906022531 17 308 0.0 0.0 0.00 0.00 0.00 90 1009.8
20260906022529 17 308 0.0 0.0 0.00 0.00 0.00 90 1010.0
20260906022523 17 308 0.0 0.0 0.00 0.00 0.00 90 1009.8
20260906022316 17 308 0.0 0.0 0.00 0.00 0.00 90 1009.8
20260906022216 17 308 0.0 0.0 0.00 0.00 0.00 90 1009.8
20260906022115 17 308 0.0 0.0 0.00 0.00 0.00 90 1009.8
20260906022029 17 308 0.0 0.0 0.00 0.00 0.00 90 1009.9
20260906022015 17 308 0.0 0.0 0.00 0.00 0.00 90 1009.8
20260906021914 17 308 0.0 0.0 0.00 0.00 0.00 90 1009.7
20260906021829 17 308 0.0 0.0 0.00 0.00 0.00 90 1009.7
20260906021823 17 308 0.0 0.0 0.00 0.00 0.00 90 1009.7
20260906021613 17 308 0.0 0.0 0.00 0.00 0.00 90 1009.7
20260906021532 17 308 0.0 0.0 0.00 0.00 0.00 90 1009.8
20260906021529 17 308 0.0 0.0 0.00 0.00 0.00 90 1009.9
20260906021526 17 308 0.0 0.0 0.00 0.00 0.00 90 1009.7
20260906021519 17 308 0.0 0.0 0.00 0.00 0.00 90 1009.7
20260906021313 17 308 0.0 0.0 0.00 0.00 0.00 90 1009.8
20260906021211 17 308 0.0 0.0 0.00 0.00 0.00 90 1009.9
20260906021111 17 308 0.0 0.0 0.00 0.00 0.00 90 1009.8
20260906021029 17 308 0.0 0.0 0.00 0.00 0.00 90 1009.9
20260906021010 17 308 0.0 0.0 0.00 0.00 0.00 90 1009.8
20260906020909 17 308 0.0 0.0 0.00 0.00 0.00 90 1009.8
20260906020809 17 308 0.0 0.0 0.00 0.00 0.00 89 1009.8
20260906020709 17 308 0.0 0.0 0.00 0.00 0.00 89 1009.9
20260906020659 17 308 0.0 0.0 0.00 0.00 0.00 89 1009.9
20260906020609 17 308 0.0 0.0 0.00 0.00 0.00 89 1009.8
20260906020545 17 308 0.0 0.0 0.00 0.00 0.00 89 1009.9
20260906020529 17 308 0.0 0.0 0.00 0.00 0.00 89 1010.0
20260906020408 17 308 0.0 0.0 0.00 0.00 0.00 89 1009.9
20260906020308 17 308 0.0 0.0 0.00 0.00 0.00 89 1009.9
20260906020208 17 308 0.0 0.0 0.00 0.00 0.00 89 1009.9
20260906020107 17 308 0.0 0.0 0.00 0.00 0.00 89 1009.9
20260906020029 17 308 0.0 0.0 0.00 0.00 0.00 89 1010.0
20260906020020 17 308 0.0 0.0 0.00 0.00 0.00 89 1009.9
20260906020012 17 308 0.0 0.0 0.00 0.00 0.00 89 1009.9
20260906015805 17 308 0.0 0.0 0.00 0.00 0.00 89 1009.8
20260906015702 17 308 0.0 0.0 0.00 0.00 0.00 89 1009.8
20260906015602 17 308 0.0 0.0 0.00 0.00 0.00 89 1009.8
20260906015544 17 308 0.0 0.0 0.00 0.00 0.00 89 1009.9
20260906015502 17 308 0.0 0.0 0.00 0.00 0.00 89 1009.8
20260906015434 17 308 0.0 0.0 0.00 0.00 0.00 88 1009.8
20260906015401 17 308 0.0 0.0 0.00 0.00 0.00 88 1009.8
20260906015301 17 308 0.0 0.0 0.00 0.00 0.00 88 1009.9
20260906015201 17 308 0.0 0.0 0.00 0.00 0.00 88 1009.9
20260906015130 17 308 0.0 0.0 0.00 0.00 0.00 88 1009.9
20260906015126 18 308 0.0 0.0 0.00 0.00 0.00 88 1009.8
20260906015121 17 308 0.0 0.0 0.00 0.00 0.00 88 1009.9
20260906015029 17 308 0.0 0.0 0.00 0.00 0.00 88 1010.0
20260906015004 17 308 0.0 0.0 0.00 0.00 0.00 88 1009.9
20260906014757 18 308 0.0 0.0 0.00 0.00 0.00 88 1009.9
20260906014655 18 308 0.0 0.0 0.00 0.00 0.00 88 1009.9
20260906014610 18 308 0.0 0.0 0.00 0.00 0.00 88 1009.9
20260906014604 18 308 0.0 0.0 0.00 0.00 0.00 88 1009.8
20260906014529 18 308 0.0 0.0 0.00 0.00 0.00 88 1010.0
20260906014432 18 308 0.0 0.0 0.00 0.00 0.00 88 1009.9
20260906014355 18 308 0.0 0.0 0.00 0.00 0.00 88 1009.9
20260906014254 18 308 0.0 0.0 0.00 0.00 0.00 88 1009.9
20260906014153 18 308 0.0 0.0 0.00 0.00 0.00 87 1009.9
20260906014140 18 308 0.0 0.0 0.00 0.00 0.00 87 1009.8
20260906014136 18 308 0.0 0.0 0.00 0.00 0.00 87 1009.8
20260906014130 18 308 0.0 0.0 0.00 0.00 0.00 87 1009.8
20260906014125 18 308 0.0 0.0 0.00 0.00 0.00 87 1009.9
20260906014030 18 308 0.0 0.0 0.00 0.00 0.00 87 1009.9
20260906014008 18 308 0.0 0.0 0.00 0.00 0.00 87 1009.8
20260906013651 18 308 0.0 0.0 0.00 0.00 0.00 87 1009.8
20260906013552 18 308 0.0 0.0 0.00 0.00 0.00 87 1009.8
20260906013529 18 308 0.0 0.0 0.00 0.00 0.00 87 1009.9
20260906013430 18 308 0.0 0.0 0.00 0.00 0.00 87 1009.8
20260906013405 18 308 0.0 0.0 0.00 0.00 0.00 87 1009.7
20260906013400 18 308 0.0 0.0 0.00 0.00 0.00 87 1009.7
20260906013205 18 308 0.0 0.0 0.00 0.00 0.00 87 1009.7
20260906013159 18 308 0.0 0.0 0.00 0.00 0.00 87 1009.7
20260906013029 18 308 0.0 0.0 0.00 0.00 0.00 87 1009.8
20260906012928 18 308 0.0 0.0 0.00 0.00 0.00 87 1009.7
20260906012849 18 308 0.0 0.0 0.00 0.00 0.00 87 1009.7
20260906012749 18 308 0.0 0.0 0.00 0.00 0.00 87 1009.6
20260906012703 18 308 0.0 0.0 0.00 0.00 0.00 87 1009.6
20260906012657 18 308 0.0 0.0 0.00 0.00 0.00 87 1009.6
20260906012529 18 308 0.0 0.0 0.00 0.00 0.00 87 1009.7
20260906012518 18 308 0.0 0.0 0.00 0.00 0.00 86 1009.6
20260906012514 18 308 0.0 0.0 0.00 0.00 0.00 86 1009.6
20260906012501 18 308 0.0 0.0 0.00 0.00 0.00 86 1009.6
20260906012144 18 308 0.0 0.0 0.00 0.00 0.00 86 1009.5
20260906012043 18 308 0.0 0.0 0.00 0.00 0.00 85 1009.5
20260906012029 18 308 0.0 0.0 0.00 0.00 0.00 85 1009.7
20260906011926 18 308 0.0 0.0 0.00 0.00 0.00 85 1009.6
20260906011857 18 308 0.0 0.0 0.00 0.00 0.00 85 1009.5
20260906011851 18 308 0.0 0.0 0.00 0.00 0.00 85 1009.6
20260906011642 18 308 0.0 0.0 0.00 0.00 0.00 85 1009.5
20260906011541 18 308 0.0 0.0 0.00 0.00 0.00 85 1009.5
20260906011529 18 308 0.0 0.0 0.00 0.00 0.00 85 1009.6
20260906011425 18 308 0.0 0.0 0.00 0.00 0.00 85 1009.5
20260906011341 18 308 0.0 0.0 0.00 0.00 0.00 84 1009.5
20260906011239 18 308 0.0 0.0 0.00 0.00 0.00 84 1009.4
20260906011139 18 308 0.0 0.0 0.00 0.00 0.00 84 1009.5
20260906011039 18 308 0.0 0.0 0.00 0.00 0.00 84 1009.5
20260906011029 18 308 0.0 0.0 0.00 0.00 0.00 84 1009.5
20260906011010 18 308 0.0 0.0 0.00 0.00 0.00 84 1009.4
20260906011006 18 308 0.0 0.0 0.00 0.00 0.00 84 1009.5
20260906010954 18 308 0.0 0.0 0.00 0.00 0.00 84 1009.4
20260906010651 18 308 0.0 0.0 0.00 0.00 0.00 84 1009.4
20260906010645 18 308 0.0 0.0 0.00 0.00 0.00 84 1009.5
20260906010529 18 308 0.0 0.0 0.00 0.00 0.00 84 1009.5
20260906010422 18 308 0.0 0.0 0.00 0.00 0.00 84 1009.4
20260906010347 18 308 0.0 0.0 0.00 0.00 0.00 83 1009.3
20260906010342 18 308 0.0 0.0 0.00 0.00 0.00 83 1009.4
20260906010132 19 308 0.0 0.0 0.00 0.00 0.00 83 1009.3
20260906010031 19 308 0.0 0.0 0.00 0.00 0.00 83 1009.3
20260906010029 19 308 0.0 0.0 0.00 0.00 0.00 83 1009.4
20260906005920 19 308 0.0 0.0 0.00 0.00 0.00 83 1009.3
20260906005829 19 308 0.0 0.0 0.00 0.00 0.00 82 1009.2
20260906005729 19 308 0.0 0.0 0.00 0.00 0.00 82 1009.3
20260906005629 19 308 0.0 0.0 0.00 0.00 0.00 82 1009.3
20260906005529 19 308 0.0 0.0 0.00 0.00 0.00 82 1009.3
20260906005527 19 308 0.0 0.0 0.00 0.00 0.00 82 1009.3
20260906005420 19 308 0.0 0.0 0.00 0.00 0.00 82 1009.2
20260906005326 19 308 0.0 0.0 0.00 0.00 0.00 82 1009.2
20260906005226 19 308 0.0 0.0 0.00 0.00 0.00 82 1009.2
20260906005140 19 308 0.0 0.0 0.00 0.00 0.00 81 1009.1
20260906005134 19 308 0.0 0.0 0.00 0.00 0.00 81 1009.1
20260906005044 19 308 0.0 0.0 0.00 0.00 0.00 81 1009.2
20260906004921 19 308 0.0 0.0 0.00 0.00 0.00 81 1009.1
20260906004901 19 308 0.0 0.0 0.00 0.00 0.00 81 1009.0
20260906004856 19 308 0.0 0.0 0.00 0.00 0.00 81 1009.1
20260906004633 19 308 0.0 0.0 0.00 0.00 0.00 81 1009.1
20260906004530 20 308 0.0 0.0 0.00 0.00 0.00 81 1009.2
20260906004419 19 308 0.0 0.0 0.00 0.00 0.00 81 1009.1
20260906004323 20 308 0.0 0.0 0.00 0.00 0.00 80 1009.1
20260906004223 20 308 0.0 0.0 0.00 0.00 0.00 80 1009.1
20260906004136 20 308 0.0 0.0 0.00 0.00 0.00 80 1009.1
20260906004130 20 308 0.0 0.0 0.00 0.00 0.00 80 1009.1
20260906004029 20 308 0.0 0.0 0.00 0.00 0.00 80 1009.2
20260906003938 20 308 0.0 0.0 0.00 0.00 0.00 80 1009.1
20260906003928 20 308 0.0 0.0 0.00 0.00 0.00 80 1009.1
20260906003718 20 308 0.0 0.0 0.00 0.00 0.00 80 1009.1
20260906003617 20 308 0.0 0.0 0.00 0.00 0.00 80 1009.1
20260906003531 20 308 0.0 0.0 0.00 0.00 0.00 79 1009.0
20260906003529 20 308 0.0 0.0 0.00 0.00 0.00 79 1009.1
20260906003522 20 308 0.0 0.0 0.00 0.00 0.00 79 1009.0
20260906003317 20 308 0.0 0.0 0.00 0.00 0.00 79 1009.0
20260906003217 20 308 0.0 0.0 0.00 0.00 0.00 79 1009.0
20260906003116 20 308 0.0 0.0 0.00 0.00 0.00 79 1009.0
20260906003043 20 308 0.0 0.0 0.00 0.00 0.00 79 1008.9
20260906003029 20 308 0.0 0.0 0.00 0.00 0.00 79 1009.0
20260906002924 20 308 0.0 0.0 0.00 0.00 0.00 78 1008.9
20260906002713 20 308 0.0 0.0 0.00 0.00 0.00 78 1008.9
20260906002628 20 308 0.0 0.0 0.00 0.00 0.00 77 1008.9
20260906002623 20 308 0.0 0.0 0.00 0.00 0.00 78 1008.9
20260906002529 20 308 0.0 0.0 0.00 0.00 0.00 77 1008.9
20260906002413 20 308 0.0 0.0 0.00 0.00 0.00 77 1008.8
20260906002313 20 308 0.0 0.0 0.00 0.00 0.00 77 1008.8
20260906002213 20 308 0.0 0.0 0.00 0.00 0.00 77 1008.8
20260906002113 20 308 0.0 0.0 0.00 0.00 0.00 77 1008.7
20260906002030 20 308 0.0 0.0 0.00 0.00 0.00 77 1008.8
20260906002011 20 308 0.0 0.0 0.00 0.00 0.00 77 1008.8
20260906001912 20 308 0.0 0.0 0.00 0.00 0.00 77 1008.8
20260906001825 20 308 0.0 0.0 0.00 0.00 0.00 76 1008.8
20260906001820 20 308 0.0 0.0 0.00 0.00 0.00 76 1008.8
20260906001645 21 308 0.0 0.0 0.00 0.00 0.00 76 1008.8
20260906001640 21 308 0.0 0.0 0.00 0.00 0.00 76 1008.8
20260906001635 21 308 0.0 0.0 0.00 0.00 0.00 76 1008.8
20260906001529 21 308 0.0 0.0 0.00 0.00 0.00 76 1008.8
20260906001517 21 308 0.0 0.0 0.00 0.00 0.00 76 1008.8
20260906001310 21 308 0.0 0.0 0.00 0.00 0.00 75 1008.8
20260906001209 21 308 0.0 0.0 0.00 0.00 0.00 75 1008.8
20260906001109 21 308 0.0 0.0 0.00 0.00 0.00 75 1008.8
20260906001029 21 308 0.0 0.0 0.00 0.00 0.00 75 1008.7
20260906001009 21 308 0.0 0.0 0.00 0.00 0.00 75 1008.8
20260906000908 21 308 0.0 0.0 0.00 0.00 0.00 74 1008.7
20260906000808 21 308 0.0 0.0 0.00 0.00 0.00 74 1008.7
20260906000722 21 308 0.0 0.0 0.00 0.00 0.00 74 1008.7
20260906000716 21 308 0.0 0.0 0.00 0.00 0.00 74 1008.6
20260906000529 21 308 0.0 0.0 0.00 0.00 0.00 74 1008.6
20260906000506 21 308 0.0 0.0 0.00 0.00 0.00 74 1008.6
20260906000405 21 308 0.0 0.0 0.00 0.00 0.00 74 1008.6
20260906000305 21 308 0.0 0.0 0.00 0.00 0.00 74 1008.5
20260906000205 21 308 0.0 0.0 0.00 0.00 0.00 73 1008.6
20260906000104 21 308 0.0 0.0 0.00 0.00 0.00 72 1008.6
20260906000044 21 308 0.0 0.0 0.00 0.00 0.00 71 1008.6
20260906000004 21 308 0.0 0.0 0.00 0.00 0.00 71 1008.6
20260905235910 21 308 0.0 0.0 0.00 0.00 0.00 71 1008.6
20260905235902 21 308 0.0 0.0 0.00 0.00 0.00 71 1008.6
20260905235802 21 308 0.0 0.0 0.00 0.00 0.00 71 1008.6
20260905235704 21 308 0.0 0.0 0.00 0.00 0.00 71 1008.6
20260905235616 22 308 0.0 0.0 0.00 0.00 0.00 70 1008.6
20260905235612 21 308 0.0 0.0 0.00 0.00 0.00 71 1008.6
20260905235529 22 308 0.0 0.0 0.00 0.00 0.00 70 1008.6
20260905235417 22 308 0.0 0.0 0.00 0.00 0.00 70 1008.6
20260905235412 22 308 0.0 0.0 0.00 0.00 0.00 70 1008.6
20260905235403 22 308 0.0 0.0 0.00 0.00 0.00 70 1008.6
20260905235249 22 308 0.0 0.0 0.00 0.00 0.00 69 1008.5
20260905235136 22 308 0.0 0.0 0.00 0.00 0.00 69 1008.5
20260905235029 22 308 0.0 0.0 0.00 0.00 0.00 68 1008.5
20260905235023 22 308 0.0 0.0 0.00 0.00 0.00 68 1008.5
20260905234908 22 308 0.0 0.0 0.00 0.00 0.00 68 1008.5
20260905234859 22 308 0.0 0.0 0.00 0.00 0.00 68 1008.5
20260905234638 22 308 0.0 0.0 0.00 0.00 0.00 67 1008.4
20260905234632 22 308 0.0 0.0 0.00 0.00 0.00 68 1008.5
20260905234623 22 308 0.0 0.0 0.00 0.00 0.00 67 1008.5
20260905234529 22 308 0.0 0.0 0.00 0.00 0.00 68 1008.5
20260905234221 22 308 0.0 0.0 0.00 0.00 0.00 67 1008.4
20260905234108 22 308 0.0 0.0 0.00 0.00 0.00 67 1008.4
20260905234030 22 308 0.0 0.0 0.00 0.00 0.00 68 1008.3
20260905233925 23 308 0.0 0.0 0.00 0.00 0.00 68 1008.3
20260905233920 23 308 0.0 0.0 0.00 0.00 0.00 68 1008.4
20260905233807 23 308 0.0 0.0 0.00 0.00 0.00 67 1008.4
20260905233557 23 308 0.0 0.0 0.00 0.00 0.00 65 1008.3
20260905233529 23 308 0.0 0.0 0.00 0.00 0.00 64 1008.3
20260905233457 23 308 0.0 0.0 0.00 0.00 0.00 64 1008.3
20260905233406 23 308 0.0 0.0 0.00 0.00 0.00 63 1008.3
20260905233356 23 308 0.0 0.0 0.00 0.00 0.00 63 1008.3
20260905233256 23 308 0.0 0.0 0.00 0.00 0.00 62 1008.3
20260905233155 23 308 0.0 0.0 0.00 0.00 0.00 62 1008.2
20260905233055 23 308 0.0 0.0 0.00 0.00 0.00 62 1008.2
20260905233029 23 308 0.0 0.0 0.00 0.00 0.00 61 1008.2
20260905232955 23 308 0.0 0.0 0.00 0.00 0.00 61 1008.2
20260905232905 23 308 0.0 0.0 0.00 0.00 0.00 61 1008.2
20260905232853 23 308 0.0 0.0 0.00 0.00 0.00 61 1008.2
20260905232753 23 308 0.0 0.0 0.00 0.00 0.00 61 1008.2
20260905232714 23 308 0.0 0.0 0.00 0.00 0.00 61 1008.2
20260905232652 23 308 0.0 0.0 0.00 0.00 0.00 61 1008.2
20260905232620 23 308 0.0 0.0 0.00 0.00 0.00 61 1008.2
20260905232615 23 308 0.0 0.0 0.00 0.00 0.00 60 1008.3
20260905232606 23 308 0.0 0.0 0.00 0.00 0.00 61 1008.2
20260905232529 23 308 0.0 0.0 0.00 0.00 0.00 61 1008.2
20260905232306 23 308 0.0 0.0 0.00 0.00 0.00 61 1008.2
20260905232259 23 308 0.0 0.0 0.00 0.00 0.00 61 1008.2
20260905232123 23 308 0.0 0.0 0.00 0.00 0.00 60 1008.1
20260905232050 23 308 0.0 0.0 0.00 0.00 0.00 60 1008.2
20260905232029 23 308 0.0 0.0 0.00 0.00 0.00 60 1008.1
20260905232012 23 308 0.0 0.0 0.00 0.00 0.00 60 1008.1
20260905231849 23 308 0.0 0.0 0.00 0.00 0.00 60 1008.1
20260905231749 23 308 0.0 0.0 0.00 0.00 0.00 60 1008.1
20260905231648 24 308 0.0 0.0 0.00 0.00 0.00 60 1008.2
20260905231548 24 308 0.0 0.0 0.00 0.00 0.00 60 1008.2
20260905231529 24 308 0.0 0.0 0.00 0.00 0.00 60 1008.2
20260905231448 24 308 0.0 0.0 0.00 0.00 0.00 60 1008.3
20260905231402 24 308 0.0 0.0 0.00 0.00 0.00 61 1008.3
20260905231347 24 308 0.0 0.0 0.00 0.00 0.00 61 1008.3
20260905231247 24 308 0.0 0.0 0.00 0.00 0.00 60 1008.3
20260905231147 24 308 0.0 0.0 0.00 0.00 0.00 60 1008.3
20260905231045 24 308 0.0 0.0 0.00 0.00 0.00 60 1008.3
20260905231029 24 308 0.0 0.0 0.00 0.00 0.00 60 1008.2
20260905230959 24 308 0.0 0.0 0.00 0.00 0.00 60 1008.3
20260905230950 24 308 0.0 0.0 0.00 0.00 0.00 60 1008.3
20260905230744 24 308 0.0 0.0 0.00 0.00 0.00 60 1008.3
20260905230644 25 308 0.0 0.0 0.00 0.00 0.00 59 1008.3
20260905230543 25 308 0.0 0.0 0.00 0.00 0.00 59 1008.3
20260905230529 25 308 0.0 0.0 0.00 0.00 0.00 59 1008.1
20260905230443 25 308 0.0 0.0 0.00 0.00 0.00 59 1008.2
20260905230340 25 308 0.0 0.0 0.00 0.00 0.00 58 1008.2
20260905230241 25 308 0.0 0.0 0.00 0.00 0.00 58 1008.2
20260905230154 25 308 0.0 0.0 0.00 0.00 0.00 57 1008.2
20260905230150 25 308 0.0 0.0 0.00 0.00 0.00 57 1008.2
20260905230029 25 308 0.0 0.0 0.00 0.00 0.00 57 1008.1
20260905225940 25 308 0.0 0.0 0.00 0.00 0.00 58 1008.2
20260905225857 25 312 0.0 0.0 0.00 0.00 0.00 58 1008.2
20260905225840 25 312 0.0 0.0 0.00 0.00 0.00 58 1008.2
20260905225813 25 312 0.0 0.0 0.00 0.00 0.00 56 1008.1
20260905225700 25 312 0.0 0.0 0.00 0.00 0.00 57 1008.1
20260905225656 25 312 0.0 0.0 0.00 0.00 0.00 57 1008.2
20260905225530 25 312 0.0 0.0 0.00 0.00 0.00 55 1008.0
20260905225357 25 286 0.0 0.0 0.00 0.00 0.00 57 1008.1
20260905225337 25 286 0.0 0.0 0.00 0.00 0.00 56 1008.1
20260905225237 25 286 0.0 0.0 0.00 0.00 0.00 56 1008.1
20260905225137 25 286 0.0 0.0 0.00 0.00 0.00 56 1008.1
20260905225036 25 286 0.0 0.0 0.00 0.00 0.00 56 1008.2
20260905225029 25 286 0.0 0.0 0.00 0.00 0.00 56 1008.0
20260905224936 25 286 0.0 0.0 0.00 0.00 0.00 56 1008.1
20260905224835 26 286 0.0 0.0 0.00 0.00 0.00 55 1008.1
20260905224734 26 286 0.0 0.0 0.00 0.00 0.00 55 1008.1
20260905224635 26 286 0.0 0.0 0.00 0.00 0.00 55 1008.1
20260905224534 26 286 0.0 0.0 0.00 0.00 0.00 55 1008.2
20260905224529 26 286 0.0 0.0 0.00 0.00 0.00 55 1008.0
20260905224434 26 286 0.0 0.0 0.00 0.00 0.00 55 1008.1
20260905224356 26 286 0.0 0.0 0.00 0.00 0.00 55 1008.1
20260905224332 26 286 0.0 0.0 0.00 0.00 0.00 53 1008.1
20260905224234 26 286 0.0 0.0 0.00 0.00 0.00 54 1008.1
20260905224132 26 286 0.0 0.0 0.00 0.00 0.00 53 1008.1
20260905224031 26 286 0.0 0.0 0.00 0.00 0.00 53 1008.1
20260905224029 26 286 0.0 0.0 0.00 0.00 0.00 53 1008.0
20260905223930 26 286 0.0 0.0 0.00 0.00 0.00 53 1008.1
20260905223842 26 286 0.0 0.0 0.00 0.00 0.00 52 1008.1
20260905223838 26 286 0.0 0.0 0.00 0.00 0.00 52 1008.1
20260905223629 26 286 0.0 0.0 0.00 0.00 0.00 52 1008.1
20260905223530 26 281 0.0 0.0 0.00 0.00 0.00 52 1008.1
20260905223429 26 296 0.0 0.0 0.00 0.00 0.00 52 1008.1
20260905223356 26 296 0.0 0.0 0.00 0.00 0.00 52 1008.1
20260905223329 26 296 0.0 0.0 0.00 0.00 0.00 52 1008.1
20260905223227 26 296 0.0 0.0 0.00 0.00 0.00 51 1008.1
20260905223127 26 296 0.0 0.0 0.00 0.00 0.00 52 1008.2
20260905223029 26 291 0.0 0.0 0.00 0.00 0.00 52 1008.1
20260905223027 26 291 0.0 0.0 0.00 0.00 0.00 52 1008.2
20260905222925 26 291 0.0 0.0 0.00 0.00 0.00 51 1008.2
20260905222853 26 291 0.0 0.0 0.00 0.00 0.00 51 1008.2
20260905222826 26 291 0.0 0.0 0.00 0.00 0.00 51 1008.2
20260905222726 26 291 0.0 0.0 0.00 0.00 0.00 51 1008.2
20260905222623 26 291 0.0 0.0 0.00 0.00 0.00 51 1008.2
20260905222559 26 291 0.0 0.0 0.00 0.00 0.00 51 1008.1
20260905222523 26 291 0.0 0.0 0.00 0.00 0.00 51 1008.2
20260905222503 26 290 0.0 0.0 0.00 0.00 0.00 51 1008.2
20260905222455 26 290 0.0 0.0 0.00 0.00 0.00 51 1008.2
20260905222344 26 281 0.0 0.0 0.00 0.00 0.00 51 1008.1
20260905222340 26 290 0.0 0.0 0.00 0.00 0.00 51 1008.2
20260905222227 26 296 0.0 0.0 0.00 0.00 0.00 50 1008.2
20260905222218 26 281 0.0 0.0 0.00 0.00 0.00 51 1008.2
20260905222029 27 281 0.0 0.0 0.00 0.00 0.00 51 1008.1
20260905221832 26 281 0.0 0.0 0.00 0.00 0.00 51 1008.0
20260905221828 26 281 0.0 0.0 0.00 0.00 0.00 51 1008.1
20260905221619 26 305 0.0 0.0 0.00 0.00 0.00 51 1008.0
20260905221529 27 305 0.0 0.0 0.00 0.00 0.00 50 1007.9
20260905221518 26 305 0.0 0.0 0.00 0.00 0.00 50 1008.0
20260905221418 26 306 0.0 0.0 0.00 0.00 0.00 50 1007.9
20260905221351 26 304 0.0 0.0 0.00 0.00 0.00 50 1007.9
20260905221318 26 269 0.0 0.0 0.00 0.00 0.00 51 1007.9
20260905221310 26 269 0.0 0.0 0.00 0.00 0.00 50 1007.9
20260905221306 26 269 0.0 0.0 0.00 0.00 0.00 51 1007.9
20260905221301 26 269 0.0 0.0 0.00 0.00 0.00 51 1007.9
20260905221030 27 269 0.0 0.0 0.00 0.00 0.00 51 1007.9
20260905220929 26 269 0.0 0.0 0.00 0.00 0.00 50 1007.9
20260905220921 26 269 0.0 0.0 0.00 0.00 0.00 50 1007.9
20260905220713 26 269 0.0 0.0 0.00 0.00 0.00 51 1007.8
20260905220627 26 269 0.0 0.0 0.00 0.00 0.00 51 1007.8
20260905220623 26 269 0.0 0.0 0.00 0.00 0.00 51 1007.8
20260905220529 27 269 0.0 0.0 0.00 0.00 0.00 50 1007.9
20260905220413 26 269 0.0 0.0 0.00 0.00 0.00 50 1007.9
20260905220349 26 269 0.0 0.0 0.00 0.00 0.00 50 1007.9
20260905220313 26 269 0.0 0.0 0.00 0.00 0.00 50 1007.9
20260905220248 27 326 0.0 0.0 0.00 0.00 0.00 50 1007.9
20260905220242 27 269 0.0 0.0 0.00 0.00 0.00 50 1007.9
20260905220129 27 268 0.0 0.0 0.00 0.00 0.00 50 1007.9
20260905220029 27 355 0.0 0.0 0.00 0.00 0.00 50 1007.9
20260905215849 27 342 0.0 0.0 0.00 0.00 0.00 49 1007.9
20260905215823 27 210 0.0 0.0 0.00 0.00 0.00 49 1007.9
20260905215818 27 344 0.0 0.0 0.00 0.00 0.00 50 1007.9
20260905215621 27 331 0.0 0.0 0.00 0.00 0.00 49 1007.9
20260905215617 27 329 0.0 0.0 0.00 0.00 0.00 49 1007.9
20260905215544 27 331 0.0 0.0 0.00 0.00 0.00 49 1007.9
20260905215408 27 259 0.0 0.0 0.00 0.00 0.00 49 1007.9
20260905215342 27 259 0.0 0.0 0.00 0.00 0.00 49 1007.9
20260905215229 27 259 0.0 0.0 0.00 0.00 0.00 49 1007.8
20260905215116 27 259 0.0 0.0 0.00 0.00 0.00 49 1007.8
20260905215029 27 259 0.0 0.0 0.00 0.00 0.00 48 1007.9
20260905214955 27 284 0.0 0.0 0.00 0.00 0.00 49 1007.8
20260905214806 27 284 0.0 0.0 0.00 0.00 0.00 49 1007.9
20260905214705 27 284 0.0 0.0 0.00 0.00 0.00 49 1007.9
20260905214605 27 288 0.0 0.0 0.00 0.00 0.00 49 1007.9
20260905214529 27 288 0.0 0.0 0.00 0.00 0.00 50 1007.9
20260905214505 27 288 0.0 0.0 0.00 0.00 0.00 50 1007.9
20260905214404 27 288 0.0 0.0 0.00 0.00 0.00 50 1007.9
20260905214345 27 288 0.0 0.0 0.00 0.00 0.00 50 1007.9
20260905214304 27 288 0.0 0.0 0.00 0.00 0.00 50 1007.9
20260905214202 27 288 0.0 0.0 0.00 0.00 0.00 50 1007.9
20260905214102 27 288 0.0 0.0 0.00 0.00 0.00 48 1007.9
20260905214029 27 296 0.0 0.0 0.00 0.00 0.00 48 1007.9
20260905214002 27 298 0.0 0.0 0.00 0.00 0.00 48 1007.9
20260905213901 27 298 0.0 0.0 0.00 0.00 0.00 49 1007.8
20260905213843 27 298 0.0 0.0 0.00 0.00 0.00 49 1007.8
20260905213801 27 269 0.0 0.0 0.00 0.00 0.00 51 1007.8
20260905213700 27 269 0.0 0.0 0.00 0.00 0.00 51 1007.8
20260905213614 27 269 0.0 0.0 0.00 0.00 0.00 51 1007.8
20260905213610 27 269 0.0 0.0 0.00 0.00 0.00 51 1007.8
20260905213529 27 269 0.0 0.0 0.00 0.00 0.00 51 1007.8
20260905213400 27 269 0.0 0.0 0.00 0.00 0.00 51 1007.8
20260905213341 27 269 0.0 0.0 0.00 0.00 0.00 51 1007.8
20260905213300 27 269 0.0 0.0 0.00 0.00 0.00 51 1007.8
20260905213159 27 269 0.0 0.0 0.00 0.00 0.00 50 1007.7
20260905213059 27 269 0.0 0.0 0.00 0.00 0.00 50 1007.7
20260905213030 27 269 0.0 0.0 0.00 0.00 0.00 51 1007.8
20260905212959 27 269 0.0 0.0 0.00 0.00 0.00 51 1007.8
20260905212949 27 269 0.0 0.0 0.00 0.00 0.00 51 1007.8
20260905212941 27 269 0.0 0.0 0.00 0.00 0.00 51 1007.8
20260905212830 27 269 0.0 0.0 0.00 0.00 0.00 50 1007.8
20260905212607 27 252 0.0 0.0 0.00 0.00 0.00 48 1007.8
20260905212603 27 269 0.0 0.0 0.00 0.00 0.00 50 1007.8
20260905212554 27 267 0.0 0.0 0.00 0.00 0.00 49 1007.8
20260905212529 27 269 0.0 0.0 0.00 0.00 0.00 49 1007.8
20260905212256 27 252 0.0 0.0 0.00 0.00 0.00 48 1007.8
20260905212156 27 251 0.0 0.0 0.00 0.00 0.00 48 1007.8
20260905212124 27 247 0.0 0.0 0.00 0.00 0.00 48 1007.8
20260905212056 27 237 0.0 0.0 0.00 0.00 0.00 48 1007.8
20260905212029 27 254 0.0 0.0 0.00 0.00 0.00 48 1007.8
20260905212022 27 246 0.0 0.0 0.00 0.00 0.00 47 1007.8
20260905212017 27 260 0.0 0.0 0.00 0.00 0.00 48 1007.8
20260905212008 27 248 0.0 0.0 0.00 0.00 0.00 48 1007.8
20260905211652 27 217 0.0 0.0 0.00 0.00 0.00 47 1007.8
20260905211605 27 300 0.0 0.0 0.00 0.00 0.00 48 1007.8
20260905211601 27 298 0.0 0.0 0.00 0.00 0.00 47 1007.8
20260905211529 27 301 0.0 0.0 0.00 0.00 0.00 48 1007.8
20260905211334 27 268 0.0 0.0 0.00 0.00 0.00 48 1007.8
20260905211250 27 267 0.0 0.0 0.00 0.00 0.00 49 1007.7
20260905211149 27 286 0.0 0.0 0.00 0.00 0.00 48 1007.8
20260905211049 27 281 0.0 0.0 0.00 0.00 0.00 49 1007.7
20260905211029 27 283 0.0 0.0 0.00 0.00 0.00 48 1007.7
20260905210949 27 283 0.0 0.0 0.00 0.00 0.00 48 1007.7
20260905210907 27 275 0.0 0.0 0.00 0.00 0.00 49 1007.8
20260905210855 27 282 0.0 0.0 0.00 0.00 0.00 48 1007.8
20260905210648 27 294 0.0 0.0 0.00 0.00 0.00 49 1007.8
20260905210622 27 273 0.0 0.0 0.00 0.00 0.00 49 1007.8
20260905210547 27 297 0.0 0.0 0.00 0.00 0.00 48 1007.7
20260905210529 27 301 0.0 0.0 0.00 0.00 0.00 48 1007.8
20260905210516 27 274 0.0 0.0 0.00 0.00 0.00 48 1007.8
20260905210511 27 291 0.0 0.0 0.00 0.00 0.00 48 1007.8
20260905210502 27 272 0.0 0.0 0.00 0.00 0.00 49 1007.8
20260905210146 27 288 0.0 0.0 0.00 0.00 0.00 48 1007.8
20260905210046 27 261 0.0 0.0 0.00 0.00 0.00 48 1007.7
20260905210029 27 304 0.0 0.0 0.00 0.00 0.00 48 1007.7
20260905205945 27 302 0.0 0.0 0.00 0.00 0.00 48 1007.7
20260905205845 27 264 0.0 0.0 0.00 0.00 0.00 48 1007.7
20260905205828 27 264 0.0 0.0 0.00 0.00 0.00 50 1007.7
20260905205743 27 254 0.0 0.0 0.00 0.00 0.00 50 1007.7
20260905205643 27 255 0.0 0.0 0.00 0.00 0.00 50 1007.8
20260905205555 27 262 0.0 0.0 0.00 0.00 0.00 50 1007.7
20260905205551 27 262 0.0 0.0 0.00 0.00 0.00 50 1007.7
20260905205529 27 262 0.0 0.0 0.00 0.00 0.00 50 1007.7
20260905205328 27 261 0.0 0.0 0.00 0.00 0.00 50 1007.7
20260905205241 27 261 0.0 0.0 0.00 0.00 0.00 48 1007.7
20260905205141 27 259 0.0 0.0 0.00 0.00 0.00 50 1007.6
20260905205053 27 259 0.0 0.0 0.00 0.00 0.00 50 1007.5
20260905205049 27 259 0.0 0.0 0.00 0.00 0.00 50 1007.6
20260905205030 27 259 0.0 0.0 0.00 0.00 0.00 50 1007.5
20260905204840 27 259 0.0 0.0 0.00 0.00 0.00 51 1007.5
20260905204826 27 259 0.0 0.0 0.00 0.00 0.00 51 1007.5
20260905204807 27 259 0.0 0.0 0.00 0.00 0.00 51 1007.6
20260905204802 27 259 0.0 0.0 0.00 0.00 0.00 48 1007.6
20260905204757 27 259 0.0 0.0 0.00 0.00 0.00 51 1007.6
20260905204529 27 259 0.0 0.0 0.00 0.00 0.00 48 1007.6
20260905204439 27 301 0.0 0.0 0.00 0.00 0.00 47 1007.6
20260905204406 27 300 0.0 0.0 0.00 0.00 0.00 48 1007.6
20260905204358 27 300 0.0 0.0 0.00 0.00 0.00 48 1007.6
20260905204247 27 331 0.0 0.0 0.00 0.00 0.00 47 1007.7
20260905204036 27 308 0.0 0.0 0.00 0.00 0.00 49 1007.7
20260905204029 27 308 0.0 0.0 0.00 0.00 0.00 48 1007.6
20260905203936 27 309 0.0 0.0 0.00 0.00 0.00 49 1007.6
20260905203906 27 317 0.0 0.0 0.00 0.00 0.00 47 1007.7
20260905203902 27 26 0.0 0.0 0.00 0.00 0.00 47 1007.7
20260905203848 27 306 0.0 0.0 0.00 0.00 0.00 48 1007.7
20260905203531 27 320 0.0 0.0 0.00 0.00 0.00 47 1007.7
20260905203445 27 235 0.0 0.0 0.00 0.00 0.00 48 1007.6
20260905203441 27 286 0.0 0.0 0.00 0.00 0.00 48 1007.6
20260905203325 27 234 0.0 0.0 0.00 0.00 0.00 48 1007.6
20260905203230 27 270 0.0 0.0 0.00 0.00 0.00 48 1007.6
20260905203129 27 326 0.0 0.0 0.00 0.00 0.00 50 1007.6
20260905203044 27 294 0.0 0.0 0.00 0.00 0.00 48 1007.7
20260905203029 27 326 0.0 0.0 0.00 0.00 0.00 49 1007.7
20260905202929 27 296 0.0 0.0 0.00 0.00 0.00 48 1007.7
20260905202829 27 302 0.0 0.0 0.00 0.00 0.00 50 1007.7
20260905202823 27 330 0.0 0.0 0.00 0.00 0.00 50 1007.7
20260905202728 27 305 0.0 0.0 0.00 0.00 0.00 51 1007.7
20260905202628 27 305 0.0 0.0 0.00 0.00 0.00 49 1007.8
20260905202539 27 305 0.0 0.0 0.00 0.00 0.00 51 1007.8
20260905202535 27 305 0.0 0.0 0.00 0.00 0.00 49 1007.8
20260905202529 27 305 0.0 0.0 0.00 0.00 0.00 51 1007.8
20260905202320 27 304 0.0 0.0 0.00 0.00 0.00 52 1007.8
20260905202225 27 82 0.0 0.0 0.00 0.00 0.00 51 1007.8
20260905202138 27 46 0.0 0.0 0.00 0.00 0.00 50 1007.8
20260905202133 27 82 0.0 0.0 0.00 0.00 0.00 51 1007.8
20260905202029 27 336 0.0 0.0 0.00 0.00 0.00 50 1007.8
20260905201923 27 336 0.0 0.0 0.00 0.00 0.00 50 1007.8
20260905201827 26 211 0.0 0.0 0.00 0.00 0.00 50 1007.8
20260905201820 26 155 0.0 0.0 0.00 0.00 0.00 50 1007.8
20260905201722 26 153 0.0 0.0 0.00 0.00 0.00 50 1007.8
20260905201622 26 274 0.0 0.0 0.00 0.00 0.00 50 1007.9
20260905201544 26 275 0.0 0.0 0.00 0.00 0.00 51 1007.8
20260905201522 26 275 0.0 0.0 0.00 0.00 0.00 51 1007.9
20260905201439 26 314 0.0 0.0 0.00 0.00 0.00 50 1007.9
20260905201435 26 306 0.0 0.0 0.00 0.00 0.00 51 1007.9
20260905201322 26 314 0.0 0.0 0.00 0.00 0.00 50 1007.9
20260905201220 27 290 0.0 0.0 0.00 0.00 0.00 51 1007.9
20260905201139 27 290 0.0 0.0 0.00 0.00 0.00 50 1008.0
20260905201030 27 290 0.0 0.0 0.00 0.00 0.00 53 1007.9
20260905201026 27 290 0.0 0.0 0.00 0.00 0.00 53 1008.0
20260905200816 27 289 0.0 0.0 0.00 0.00 0.00 52 1007.9
20260905200729 27 288 0.0 0.0 0.00 0.00 0.00 50 1008.0
20260905200724 27 288 0.0 0.0 0.00 0.00 0.00 51 1007.9
20260905200543 27 329 0.0 0.0 0.00 0.00 0.00 50 1008.0
20260905200529 27 322 0.0 0.0 0.00 0.00 0.00 52 1007.9
20260905200515 27 294 0.0 0.0 0.00 0.00 0.00 52 1008.0
20260905200430 27 322 0.0 0.0 0.00 0.00 0.00 51 1007.9
20260905200315 27 323 0.0 0.0 0.00 0.00 0.00 50 1008.0
20260905200215 27 327 0.0 0.0 0.00 0.00 0.00 49 1007.9
20260905200113 27 310 0.0 0.0 0.00 0.00 0.00 50 1007.9
20260905200058 27 275 0.0 0.0 0.00 0.00 0.00 51 1007.9
20260905200054 27 279 0.0 0.0 0.00 0.00 0.00 51 1007.9
20260905200050 27 321 0.0 0.0 0.00 0.00 0.00 53 1007.9
20260905200044 27 269 0.0 0.0 0.00 0.00 0.00 50 1007.9
20260905195821 27 269 0.0 0.0 0.00 0.00 0.00 51 1007.9
20260905195624 27 49 0.0 0.0 0.00 0.00 0.00 52 1007.9
20260905195620 27 331 0.0 0.0 0.00 0.00 0.00 51 1007.9
20260905195529 27 49 0.0 0.0 0.00 0.00 0.00 52 1007.9
20260905195410 27 49 0.0 0.0 0.00 0.00 0.00 53 1007.9
20260905195328 27 282 0.0 0.0 0.00 0.00 0.00 51 1007.9
20260905195318 27 260 0.0 0.0 0.00 0.00 0.00 53 1008.0
20260905195109 26 311 0.0 0.0 0.00 0.00 0.00 51 1007.9
20260905195029 26 315 0.0 0.0 0.00 0.00 0.00 52 1007.9